GFSNE_2pvu_pres_000.txt.gz
Presure
199 200 129 200 184 156 185 193 183 205 179 200 183 207 194 194 204 290 269 256 236 254 228 225 223 226 226 211 213 215 228 218 224 219 228 223 235 255
197 174 193 179 175 190 195 183 192 197 195 184 201 172 199 204 214 206 273 256 235 241 237 239 220 223 215 215 217 217 213 224 222 227 229 219 240 250
192 189 186 190 197 183 184 190 191 199 198 180 154 189 187 202 219 215 269 259 239 228 219 228 227 225 226 223 218 207 225 213 222 217 216 241 254 252
205 194 170 180 180 185 191 195 196 188 192 177 203 205 202 198 238 203 263 252 242 230 220 219 225 217 223 235 223 230 229 216 219 230 226 229 250 241
171 195 201 189 191 192 181 189 175 180 185 205 206 213 197 199 264 242 258 237 244 229 220 234 221 223 228 217 224 212 225 237 219 224 249 246 241 243
193 185 197 180 192 200 182 174 191 203 209 216 201 206 205 183 220 261 257 245 243 228 221 225 210 222 228 228 222 223 231 228 223 228 245 252 237 233
205 201 180 179 197 170 196 204 199 213 222 220 219 227 213 203 273 260 250 246 239 230 218 221 222 220 226 225 215 228 218 219 229 232 243 248 237 254
212 200 205 205 205 202 187 144 215 215 217 244 213 286 201 288 275 225 248 238 231 231 228 212 218 228 227 219 215 217 217 228 228 235 251 229 238 256
220 215 214 196 212 209 221 231 225 213 197 201 216 213 305 285 261 255 245 236 232 228 232 225 225 223 220 220 222 218 229 233 234 244 252 237 240 263
188 200 185 213 217 259 225 218 216 208 218 271 297 341 305 283 224 246 239 237 223 227 215 222 227 219 214 225 218 228 223 227 232 246 250 238 262 242
250 240 252 255 241 242 247 221 225 333 319 307 344 328 298 229 259 242 236 235 224 217 217 216 228 226 215 225 218 222 228 230 254 246 246 265 252 256
295 271 284 361 368 343 353 346 340 324 394 350 333 316 224 260 258 244 237 224 223 217 217 222 227 222 230 225 217 231 232 245 251 242 267 253 254 237
295 348 308 235 362 352 346 337 327 382 348 332 294 291 270 254 248 227 231 226 222 223 235 231 226 228 225 221 227 233 240 251 240 266 246 256 238 256
352 362 392 378 367 361 366 294 386 369 327 278 297 268 262 258 242 230 242 215 236 221 224 229 224 222 226 224 238 242 260 243 265 252 251 253 257 266
311 279 323 278 354 334 258 246 365 345 244 288 282 262 251 244 244 229 227 225 228 218 220 227 228 217 226 234 242 260 248 271 255 251 255 260 268 277
321 330 349 352 437 401 403 353 253 280 305 288 270 270 254 238 236 232 225 229 229 224 226 234 232 228 230 249 245 243 259 265 250 251 263 277 292 339
315 293 319 308 337 348 294 259 335 309 300 290 265 255 257 238 229 219 217 224 190 232 236 231 237 248 251 242 246 259 256 252 252 258 268 304 337 346
415 308 289 294 281 270 256 316 320 307 298 277 269 265 251 242 238 242 244 243 239 233 238 252 250 241 239 244 255 247 251 251 255 268 281 333 353 340
374 445 287 274 264 273 335 309 291 293 292 283 274 263 263 262 254 246 249 248 244 252 251 236 239 242 246 258 246 248 252 257 271 283 338 342 340 335
340 427 408 353 367 320 316 291 288 275 276 266 244 258 244 250 246 259 244 237 247 238 239 243 247 253 252 247 243 259 254 267 287 345 345 352 331 340
325 410 401 362 331 307 297 293 275 283 272 268 251 241 246 245 255 244 245 247 226 234 237 242 252 256 240 242 236 252 275 299 347 343 344 332 326 336
310 402 380 337 313 308 307 275 263 258 247 259 261 242 237 246 253 235 228 228 233 231 239 252 243 246 249 257 256 275 338 336 363 360 338 322 338 389
299 403 366 319 292 296 274 264 264 251 260 256 238 243 259 227 227 227 233 237 230 237 245 238 234 246 255 252 274 333 360 304 402 345 353 388 423 401

GFSNE_2pvu_pres_003.txt.gz
Presure
169 190 210 205 217 253 197 240 211 179 203 200 169 185 156 190 172 146 153 207 207 217 212 264 195 215 253 251 238 225 226 231 233 220 218 223 223 219
190 202 179 174 243 232 161 199 153 197 163 182 176 189 177 166 190 151 208 204 209 215 221 261 247 269 254 247 240 234 229 224 220 229 222 232 225 224
200 148 222 261 241 219 254 161 180 189 154 188 187 172 181 166 166 169 193 207 205 216 237 213 204 263 253 248 239 229 229 225 227 227 229 229 225 226
203 167 226 182 218 166 175 192 189 186 194 177 183 206 168 202 203 203 205 214 208 200 202 277 268 256 250 239 237 224 229 225 230 226 229 225 226 223
169 178 192 165 208 188 195 195 197 196 189 199 202 191 177 176 200 199 219 227 193 207 219 273 264 255 250 239 240 228 227 227 216 228 227 227 219 219
203 172 211 164 190 188 190 172 191 173 186 199 196 179 198 206 207 232 218 214 213 215 265 266 258 251 230 236 236 224 232 225 229 225 219 227 224 228
228 196 205 170 197 167 179 189 192 199 221 177 210 179 173 253 242 240 278 218 215 265 270 243 252 249 246 232 229 235 221 221 225 232 233 227 225 230
202 205 224 212 168 227 191 231 220 198 183 221 276 234 298 224 193 228 281 215 233 254 275 258 246 240 226 234 228 223 219 218 221 228 230 229 227 221
363 320 382 275 272 312 266 383 245 316 259 260 251 259 248 256 247 215 213 279 264 248 255 253 247 238 228 229 233 227 216 221 226 226 230 225 220 236
284 269 283 356 262 231 348 338 293 373 345 271 268 342 358 354 326 294 280 271 285 255 252 239 223 236 229 227 232 225 223 225 227 232 225 228 236 232
195 376 372 375 392 379 341 386 375 289 364 358 365 322 337 327 317 300 291 313 283 257 234 226 232 227 229 229 230 224 218 228 226 221 228 236 232 232
378 312 337 369 369 369 370 376 377 371 354 350 345 340 334 313 303 314 328 288 287 260 242 231 232 230 224 229 205 228 230 225 224 229 237 229 230 251
384 359 376 375 376 375 377 390 342 398 356 344 339 332 318 364 317 309 304 286 275 252 238 231 234 232 233 231 229 229 225 227 232 237 237 242 258 246
355 320 309 310 308 337 366 360 374 325 322 367 302 323 281 319 307 296 264 260 252 240 241 231 233 225 233 228 225 237 231 235 237 236 252 248 244 259
398 414 415 428 390 378 356 331 353 360 358 273 256 239 306 290 280 268 257 253 248 239 237 236 229 232 231 226 234 234 233 239 243 257 246 249 258 249
355 346 355 367 435 374 312 298 338 368 447 336 281 311 302 281 271 260 255 256 242 240 236 240 229 236 233 229 236 234 245 250 257 252 255 272 254 268
344 345 338 302 376 360 329 291 305 424 422 359 323 244 264 276 261 261 249 254 249 238 237 239 234 238 237 238 239 244 254 246 255 265 263 260 270 277
331 332 334 337 355 476 315 280 281 274 268 251 247 285 274 257 250 252 246 248 237 237 236 234 239 247 240 237 253 240 241 255 259 257 261 270 279 287
357 321 330 332 375 441 362 276 271 265 255 304 299 286 281 265 247 247 256 254 247 247 245 242 241 244 247 241 236 241 251 251 260 261 270 284 287 352
364 355 331 349 347 417 335 272 263 256 260 292 291 282 267 259 250 245 248 248 253 256 251 255 250 252 239 242 246 254 252 259 267 272 288 368 328 307
397 331 330 336 413 410 376 269 278 314 296 284 283 282 251 270 253 256 280 261 242 247 243 237 238 244 245 253 249 254 259 267 278 315 350 303 362 340
372 322 329 391 410 377 341 303 290 270 286 279 270 276 263 246 260 260 233 232 235 236 234 236 238 244 252 250 259 258 272 291 353 292 354 359 353 420
368 310 316 410 388 343 305 302 288 285 277 275 273 262 255 258 250 238 250 229 235 235 234 234 255 251 248 259 262 281 329 296 366 380 436 343 378 377

GFSNE_2pvu_pres_006.txt.gz
Presure
185 198 191 179 211 204 170 208 202 174 207 141 163 159 162 185 178 179 179 186 176 186 190 199 162 172 196 209 221 225 204 208 268 247 248 247 230 230
169 180 194 183 128 210 201 208 167 197 207 203 204 192 192 174 197 151 184 169 172 197 203 186 201 176 212 220 222 209 207 226 266 249 244 237 236 230
217 192 151 163 177 196 155 156 227 199 189 208 193 196 188 192 202 179 188 174 174 188 191 185 176 201 220 234 238 217 206 273 258 257 251 243 227 237
143 142 151 205 163 161 207 225 162 224 226 178 174 162 169 188 189 176 165 187 200 199 180 185 208 218 237 220 224 264 217 264 253 257 256 242 247 229
156 160 166 154 236 171 187 217 170 189 207 172 209 176 196 199 169 174 193 195 178 211 203 222 213 235 245 194 268 221 226 271 257 246 244 241 230 231
228 199 193 251 343 179 218 284 169 212 316 295 231 230 169 204 188 169 189 288 250 233 211 239 235 259 230 280 213 214 240 248 244 245 237 235 225 230
275 309 313 241 246 241 248 309 243 206 339 257 258 323 332 364 329 264 250 320 316 319 270 270 270 227 264 250 237 215 254 242 241 238 240 229 228 231
264 237 256 404 394 379 176 368 368 407 349 386 385 389 211 369 275 199 195 247 198 199 322 292 224 229 260 269 246 241 246 250 236 237 236 228 229 227
420 350 411 395 383 378 369 324 353 337 365 349 328 201 339 366 359 372 356 369 336 259 260 235 281 279 262 252 241 247 254 247 242 225 237 229 225 230
411 409 414 414 403 348 393 359 332 375 359 375 331 347 385 373 379 291 393 277 364 279 354 302 271 269 252 262 239 257 246 237 226 232 229 220 229 240
406 388 349 344 324 331 280 334 385 386 379 371 369 368 362 356 357 364 377 369 357 339 343 307 291 266 257 238 241 249 248 234 233 226 232 232 233 225
326 327 325 326 341 334 341 407 403 391 383 375 374 374 370 372 305 358 354 344 337 339 311 307 294 271 247 242 246 253 252 230 230 231 237 227 233 239
397 395 393 400 411 420 388 400 380 321 306 303 345 370 363 376 365 349 338 322 312 308 289 279 271 253 274 255 250 243 235 236 227 232 234 229 235 235
371 375 379 354 372 375 304 400 424 427 406 401 303 333 363 289 313 332 312 299 318 304 319 292 296 271 271 248 246 238 236 235 233 235 235 237 241 233
365 362 361 363 356 360 359 348 365 376 441 373 323 344 367 362 265 283 355 249 287 290 293 277 268 264 265 239 241 237 235 243 231 239 240 235 241 243
354 355 351 340 339 343 348 349 315 383 381 308 291 344 349 318 332 305 249 285 281 276 266 252 251 256 250 246 232 223 229 235 238 235 249 245 245 240
347 348 346 345 326 327 331 336 331 294 329 294 318 343 308 329 303 289 275 275 261 256 252 249 248 239 241 239 236 239 241 239 233 234 243 240 244 246
440 427 387 352 352 320 324 330 351 418 319 289 415 341 316 298 286 282 241 272 257 255 249 250 242 236 238 242 233 232 239 247 245 241 242 252 250 246
421 420 343 346 344 347 321 361 432 320 283 278 265 267 254 288 273 259 269 256 250 253 253 258 253 256 248 245 247 243 242 258 256 248 246 253 254 252
413 417 396 332 361 318 351 360 410 295 274 266 262 293 249 287 259 261 270 246 253 245 248 250 247 243 242 247 258 261 242 242 253 246 259 259 272 277
407 419 493 368 332 337 401 395 344 279 267 264 285 249 280 270 262 253 250 249 246 252 244 239 257 253 244 243 243 244 244 249 261 262 262 282 306 321
408 419 362 328 327 339 393 336 313 312 262 310 265 284 271 269 249 252 244 252 257 256 254 271 236 240 242 246 248 251 256 257 268 275 310 325 351 351
415 370 323 316 407 379 335 314 305 277 288 283 278 285 274 264 259 243 248 250 263 249 255 252 249 247 250 250 251 265 266 277 320 322 371 340 388 384

GFSNE_2pvu_pres_009.txt.gz
Presure
189 190 174 156 137 213 208 207 201 192 221 199 191 215 215 157 156 190 157 167 192 190 190 208 169 197 186 186 183 182 185 180 182 198 209 204 223 195
146 129 157 152 144 219 198 219 172 194 183 237 146 150 217 229 193 181 178 201 213 206 178 177 186 184 187 193 187 178 199 191 184 203 203 212 218 197
154 155 182 161 143 156 157 155 177 210 170 198 169 160 158 235 181 173 257 229 242 204 218 213 187 194 207 169 179 198 181 201 205 221 217 229 246 267
133 149 157 280 150 275 208 200 166 168 232 274 279 161 277 244 177 264 172 306 263 263 210 266 186 180 201 183 205 207 211 220 248 242 237 257 276 267
158 146 179 236 218 253 172 216 243 295 361 252 342 334 295 204 368 324 318 221 361 343 340 332 274 255 220 262 213 206 231 235 271 238 269 273 244 227
151 206 323 392 423 414 341 322 372 325 363 362 356 363 345 335 361 383 373 363 363 348 341 343 330 266 279 300 245 238 241 237 276 288 280 217 243 242
411 399 402 397 332 318 374 373 406 409 364 341 382 419 389 406 386 368 381 344 370 286 367 334 281 373 354 293 308 293 275 277 251 250 260 233 259 248
408 405 336 357 397 400 398 398 402 404 403 406 408 407 405 398 354 374 360 364 352 366 368 347 365 202 203 336 258 268 289 266 276 270 268 252 242 248
399 401 398 394 389 391 392 396 401 402 407 407 409 385 399 393 382 337 314 333 338 343 317 356 347 288 325 312 302 291 278 255 245 272 257 247 236 237
405 399 392 390 388 354 404 373 369 324 321 322 330 327 317 315 310 353 388 382 381 371 339 385 371 376 278 296 299 284 275 241 270 261 272 237 243 244
389 388 381 345 293 290 372 389 392 397 400 392 397 398 370 389 378 377 376 369 367 363 357 358 370 368 334 339 294 278 284 254 267 264 238 253 236 259
370 365 359 362 371 378 376 371 375 381 366 392 393 349 393 388 383 350 377 385 377 363 332 350 355 353 331 304 288 288 274 264 253 242 243 242 237 230
553 558 550 386 361 364 369 370 369 383 352 371 386 346 384 381 337 306 299 372 372 338 333 350 346 318 319 296 288 275 263 261 255 242 247 246 250 247
528 520 510 502 496 362 359 359 356 360 357 362 355 364 405 417 416 361 298 379 353 341 332 328 319 340 303 299 305 298 266 263 262 243 240 243 241 230
475 473 472 471 471 435 353 349 347 339 346 353 339 329 434 372 337 340 367 344 276 321 314 308 291 283 275 264 281 271 251 249 243 249 257 220 243 237
441 439 438 440 443 451 357 341 337 325 336 344 315 419 355 303 336 355 331 317 305 283 301 303 269 296 281 282 276 261 261 256 251 251 261 241 238 231
409 410 413 421 425 440 457 342 335 323 330 331 301 354 298 290 338 318 311 320 313 304 279 290 281 268 269 270 262 263 254 243 247 247 246 244 241 224
392 402 409 416 421 437 538 349 332 322 327 436 333 296 311 330 314 306 296 302 289 284 284 257 257 261 252 250 251 244 236 234 240 237 232 240 247 251
384 392 404 415 422 538 341 347 314 327 424 321 299 304 351 299 306 298 292 283 272 276 251 257 260 246 241 242 246 241 238 239 247 249 250 243 245 246
374 390 408 414 554 328 342 312 355 370 317 289 277 277 263 279 289 258 275 269 263 266 260 251 254 259 256 250 251 252 248 253 249 254 252 250 246 250
366 401 415 452 333 332 316 361 373 325 288 275 274 262 291 289 256 275 275 261 259 250 254 245 251 232 257 248 244 250 260 255 244 239 247 255 246 247
373 413 403 337 322 313 368 345 338 332 276 266 266 296 254 273 271 262 259 250 253 248 268 248 249 255 259 259 251 263 261 246 255 260 244 253 262 268
395 410 329 317 311 346 326 328 330 270 289 253 274 273 266 268 259 248 244 250 248 248 248 241 260 251 260 261 253 254 258 256 248 267 274 273 282 314

GFSNE_2pvu_pres_012.txt.gz
Presure
186 211 199 132 139 225 143 215 151 164 246 143 164 237 159 158 155 154 179 245 167 236 248 247 196 242 181 242 196 178 200 177 206 181 149 180 187 178
237 161 139 144 149 140 149 139 158 171 230 190 152 153 157 162 251 251 247 301 236 230 213 210 216 243 240 209 233 236 233 219 242 196 210 181 196 184
217 210 158 137 152 248 265 221 165 161 357 435 159 237 237 362 425 392 331 335 358 356 345 325 337 326 311 305 271 253 272 197 204 275 210 190 190 188
131 134 144 249 281 151 168 308 409 410 423 430 429 400 421 207 426 388 403 429 326 389 399 387 315 321 311 329 259 352 282 274 269 270 258 258 265 218
169 147 167 250 418 272 407 408 408 222 406 411 423 417 413 324 352 413 347 320 352 346 340 369 324 332 319 358 360 300 214 275 288 309 287 303 289 272
206 205 420 410 403 399 395 392 392 393 395 400 403 403 402 403 407 406 406 402 392 326 322 321 339 350 353 351 352 343 343 331 334 335 242 251 267 243
391 429 419 404 394 392 390 386 392 398 395 397 395 400 403 394 396 400 409 399 398 397 406 391 381 407 351 347 340 336 336 326 331 295 293 278 255 280
421 410 399 394 390 387 385 387 395 398 394 392 402 400 289 400 390 328 316 404 401 392 387 402 374 351 372 376 342 345 336 360 350 219 278 210 289 267
404 393 385 377 376 326 325 376 379 379 381 374 315 297 311 395 396 384 328 320 306 367 388 388 363 340 322 357 360 315 338 366 345 288 296 283 266 260
371 369 328 193 381 477 477 479 475 375 361 361 370 387 386 382 383 399 407 318 319 316 312 308 366 363 363 305 335 355 361 285 363 299 277 274 269 256
459 190 193 205 507 522 524 526 530 533 529 361 361 378 383 368 376 379 416 416 401 378 369 379 361 374 369 363 366 366 301 352 309 301 277 266 273 255
181 184 217 462 482 494 501 503 507 509 508 392 363 371 371 371 353 387 422 397 397 388 365 376 360 353 358 351 360 364 360 350 280 261 280 262 273 248
262 380 400 438 451 459 465 473 480 482 480 366 357 357 356 370 374 389 418 389 387 336 307 355 373 360 344 334 340 353 363 316 283 281 276 278 260 263
375 372 381 414 424 429 435 441 446 452 427 355 351 346 351 359 356 375 418 430 388 352 295 363 371 369 321 328 340 362 312 313 287 278 290 278 268 263
374 364 370 394 409 414 419 428 435 448 349 341 340 334 346 351 345 434 376 355 342 365 286 351 343 335 341 326 336 322 310 310 280 284 255 258 257 245
364 358 365 381 400 412 420 423 442 370 337 337 318 331 337 317 361 331 328 358 350 343 335 329 327 330 346 321 299 299 299 305 265 274 250 253 253 252
363 363 361 373 394 411 416 436 535 342 332 315 325 331 390 343 315 304 343 333 321 312 309 302 301 301 289 288 278 274 275 265 277 293 267 259 251 248
358 361 357 376 407 419 436 538 344 335 315 324 326 346 331 305 293 323 337 336 306 307 298 293 297 296 284 275 272 263 274 274 269 245 244 247 249 239
354 352 361 399 423 462 392 333 340 308 321 418 325 311 296 328 318 320 315 302 298 290 289 290 278 283 278 273 272 262 260 257 259 260 252 242 233 233
344 355 380 427 436 324 330 327 311 399 326 311 318 310 320 308 299 289 298 292 284 282 273 247 260 255 264 258 253 257 253 250 253 255 253 249 237 233
342 371 425 420 317 329 316 372 363 317 298 288 283 305 278 293 288 287 289 274 263 273 261 265 259 250 253 253 250 243 253 251 251 247 240 245 248 248
360 420 413 326 320 313 341 344 317 292 282 274 282 286 288 275 283 270 268 272 262 268 263 251 250 255 259 250 256 246 247 251 253 255 260 260 262 260
413 372 321 315 347 339 340 333 319 276 298 270 280 276 276 271 268 271 261 262 265 251 261 255 249 258 257 255 254 250 261 258 257 257 252 247 260 253

GFSNE_2pvu_pres_015.txt.gz
Presure
107 204 120 218 230 223 223 224 244 247 255 239 249 163 253 293 291 289 287 289 305 310 297 289 302 372 358 341 315 302 248 270 239 232 239 233 226 202
163 182 179 194 210 234 241 223 164 179 297 286 320 365 437 434 431 432 430 429 428 437 428 417 401 251 404 352 345 284 323 298 295 298 235 234 225 237
157 169 199 148 246 236 254 278 273 219 412 414 436 430 421 414 412 412 412 415 415 417 422 445 409 375 369 322 324 312 339 335 331 309 279 272 255 267
186 210 250 237 251 312 382 441 437 433 433 442 435 419 411 405 403 396 390 396 400 411 413 410 416 411 392 356 367 354 329 331 358 343 303 290 285 278
240 232 211 303 381 445 438 435 429 420 416 417 421 417 416 409 405 402 396 394 388 391 388 406 400 409 396 322 295 305 327 350 348 322 308 292 295 281
264 279 291 452 445 436 422 374 395 391 384 381 371 295 297 388 402 401 398 398 402 393 390 386 398 404 405 403 377 348 315 346 375 358 280 291 285 264
237 436 451 435 417 398 395 393 475 472 275 192 202 482 388 378 373 378 392 398 394 394 382 375 390 403 411 391 403 338 326 329 339 311 322 323 324 286
453 444 425 407 393 396 464 446 426 182 187 201 430 441 447 466 538 377 375 392 307 292 373 401 387 398 401 408 378 371 364 342 331 310 306 355 321 293
440 420 398 387 453 431 426 408 391 409 454 487 518 528 533 531 538 551 372 374 320 284 312 406 357 310 366 401 388 376 383 353 365 345 336 353 338 316
414 393 386 453 420 405 405 391 380 418 451 464 481 489 499 506 515 528 370 367 378 370 382 404 402 324 311 357 388 399 383 375 374 339 335 332 325 314
341 382 443 426 402 385 393 383 379 416 424 440 455 470 479 484 496 464 364 377 365 364 377 400 402 318 316 306 349 380 329 342 339 325 323 328 315 295
383 436 422 412 392 385 386 378 391 416 416 419 431 448 466 480 376 365 367 363 370 351 405 418 404 395 380 319 319 306 375 321 308 362 301 354 352 342
381 421 388 407 392 374 375 373 400 418 421 427 439 452 394 361 359 354 355 364 363 377 426 299 393 391 378 372 379 378 368 364 352 311 316 315 335 352
429 400 415 401 387 370 367 374 411 421 423 443 454 359 352 349 343 346 353 347 382 422 385 391 353 323 310 368 363 366 367 361 358 364 288 340 277 269
405 405 408 403 357 366 365 401 425 426 536 396 344 339 332 330 342 347 340 437 437 417 378 384 365 295 365 376 358 356 341 340 340 342 311 336 314 277
391 374 407 313 359 365 388 429 435 549 529 333 335 319 326 337 327 396 365 356 343 337 344 352 304 365 369 350 309 339 329 348 354 337 322 299 302 276
409 372 336 354 349 375 424 436 487 369 334 330 315 326 328 334 343 318 290 344 342 339 338 335 334 340 330 324 340 358 344 336 324 316 292 292 284 276
416 405 460 393 367 429 509 336 335 338 320 319 337 353 336 309 293 304 329 317 315 310 312 312 316 335 320 308 309 301 300 301 301 308 289 271 266 268
423 482 432 362 434 391 325 334 328 307 402 338 323 310 292 288 314 323 320 300 305 294 301 305 295 298 283 288 284 278 273 283 275 275 279 277 284 263
438 425 370 425 368 313 330 319 385 325 394 311 292 311 309 306 306 292 291 283 283 285 284 292 290 288 273 283 273 254 261 261 271 262 260 261 273 274
420 379 335 346 319 331 348 352 356 300 301 290 301 292 293 288 292 284 287 284 284 282 285 281 266 271 274 272 268 271 260 261 252 256 251 248 251 254
377 385 306 319 339 340 329 329 294 294 308 289 283 288 288 286 288 267 274 260 261 263 268 260 268 269 267 258 258 257 256 260 236 257 246 250 249 247
365 319 319 346 334 315 315 318 300 298 296 287 266 286 283 284 263 267 284 268 270 265 260 277 265 270 254 260 266 268 259 248 249 249 246 244 249 249

GFSNE_2pvu_pres_018.txt.gz
Presure
154 156 201 148 187 170 205 223 197 237 244 211 211 248 272 266 479 482 476 469 455 437 433 432 429 420 415 414 361 324 303 289 257 243 260 217 266 261
191 186 114 152 217 199 215 241 220 235 257 146 266 486 471 458 454 453 453 454 444 430 419 415 417 415 411 407 427 422 380 319 299 287 297 266 331 285
151 185 170 214 211 212 219 226 235 233 241 384 462 451 265 418 416 407 402 406 418 422 412 408 404 409 404 400 410 429 404 387 386 339 310 316 291 296
211 215 194 214 215 226 228 238 239 317 452 441 424 407 403 399 399 401 394 384 375 377 396 396 392 394 391 394 405 408 399 400 408 417 362 337 302 264
130 211 217 232 229 234 238 238 303 439 415 398 422 455 444 436 435 437 465 183 308 355 334 382 392 390 384 380 387 406 418 402 398 421 366 379 333 280
233 217 220 237 236 258 242 423 429 407 420 453 433 419 409 400 398 290 213 185 223 204 383 367 376 391 388 389 385 386 407 408 405 374 409 383 315 302
211 228 229 244 244 411 437 420 404 453 445 424 410 395 398 395 436 480 514 537 558 475 583 391 365 382 389 391 395 390 393 410 421 386 356 394 364 356
206 237 300 425 452 436 413 397 449 431 418 406 395 392 389 419 439 464 491 505 528 532 454 572 375 373 383 391 393 387 391 402 399 416 363 294 305 285
240 279 448 439 427 412 395 446 419 419 405 387 386 385 408 427 435 452 468 485 505 508 522 559 374 372 380 391 381 383 383 401 401 398 426 370 343 293
382 452 417 426 404 392 441 436 429 409 382 372 380 398 426 427 432 449 462 474 477 504 528 542 366 371 381 383 294 288 395 398 353 403 409 346 341 331
449 434 422 400 384 444 433 415 428 387 364 371 387 417 432 428 446 458 464 477 574 539 402 362 365 374 376 366 390 405 403 316 406 404 377 334 335 323
441 422 397 375 391 429 411 432 417 364 370 378 409 425 433 449 378 364 361 356 351 357 370 370 359 359 373 378 393 406 333 314 356 406 375 313 308 304
422 400 377 397 432 420 388 401 363 370 387 422 430 471 392 348 348 347 347 347 348 358 362 358 362 367 389 390 398 408 316 310 311 392 394 369 367 341
399 372 376 437 471 423 405 365 365 392 432 508 535 342 335 336 334 334 337 341 351 362 364 381 405 398 394 301 357 395 387 317 302 391 378 372 352 344
375 364 432 410 115 415 472 436 398 471 504 424 336 330 324 318 329 339 346 342 338 394 409 419 378 383 385 391 395 385 384 388 342 385 361 325 354 335
361 431 402 411 479 454 428 411 522 362 362 333 328 314 318 330 322 341 354 353 355 365 370 377 379 380 334 309 302 374 368 375 373 370 374 296 303 354
439 402 412 427 419 397 421 391 333 342 335 316 315 326 336 338 323 311 308 346 349 349 352 353 352 355 292 365 369 369 346 349 350 354 353 340 298 289
407 406 410 433 378 425 365 325 336 322 312 356 340 326 310 300 293 324 322 324 324 321 324 327 337 334 339 343 319 300 330 330 339 343 355 335 324 276
395 406 397 404 373 339 319 331 384 405 322 311 305 293 288 312 316 322 303 300 309 309 307 341 336 327 345 354 355 357 349 352 361 372 347 328 309 307
407 403 414 347 322 330 358 368 321 305 317 323 321 313 313 309 297 298 292 289 296 302 297 302 302 297 297 295 294 305 301 306 306 276 299 301 294 292
395 411 358 313 350 347 349 318 296 314 302 303 300 302 291 293 289 287 285 283 278 288 291 287 281 281 272 275 283 275 279 275 268 289 299 289 276 287
414 332 312 342 337 329 313 299 305 300 295 289 288 290 277 282 273 284 274 270 267 274 277 255 284 278 280 270 270 255 259 260 259 271 262 265 262 263
322 343 333 318 329 305 293 289 296 292 285 281 277 284 276 276 273 269 273 271 268 260 260 262 261 262 254 271 267 260 269 262 262 257 260 263 254 253

GFSNE_2pvu_pres_021.txt.gz
Presure
223 213 201 217 154 216 149 219 227 133 228 204 184 140 83 233 240 248 252 257 282 392 467 458 447 440 436 447 459 456 453 454 422 341 298 300 321 273
202 222 218 188 123 157 194 224 215 215 196 137 224 225 97 245 124 466 453 442 433 426 421 418 420 419 424 426 432 435 432 441 449 413 375 303 301 308
222 166 146 145 195 165 211 214 219 223 237 249 252 212 324 458 448 430 418 409 445 444 469 463 406 389 387 401 415 414 421 422 427 435 374 357 303 284
137 130 145 222 198 214 216 223 230 240 254 249 269 465 443 425 411 408 462 447 438 428 421 426 433 462 423 377 380 408 402 407 409 411 427 346 307 299
220 201 153 210 227 217 206 234 251 250 288 464 453 426 411 396 445 443 436 424 411 402 401 401 406 410 418 258 182 188 398 399 399 409 417 419 392 337
161 217 208 214 221 238 246 249 265 477 457 435 416 401 453 433 430 431 419 394 387 383 415 439 462 516 503 416 431 194 204 399 393 405 412 390 411 395
207 215 218 228 240 247 255 457 468 450 429 405 391 451 429 433 425 401 387 381 398 422 425 443 476 511 543 568 515 401 371 374 391 391 394 398 431 411
199 218 230 242 253 267 453 459 438 421 397 386 445 419 436 419 341 379 386 423 429 414 447 475 479 502 525 545 421 450 381 368 401 394 388 392 409 432
224 237 249 301 453 449 407 437 417 389 388 437 419 424 415 346 383 413 426 429 446 456 483 500 489 500 508 532 503 575 396 366 393 397 392 385 395 414
242 260 466 450 444 424 432 416 389 393 457 445 407 390 368 394 428 443 444 550 548 530 521 521 488 499 513 519 495 527 400 374 383 395 392 392 394 414
436 461 449 392 437 424 409 390 441 419 421 409 392 373 423 446 510 399 366 366 365 371 403 485 468 481 498 518 546 464 372 377 385 393 396 403 404 401
460 446 367 425 417 397 379 441 420 433 468 443 420 439 529 538 352 348 350 352 356 359 357 349 357 359 363 364 366 373 379 388 294 276 387 384 384 408
365 385 421 409 390 370 427 415 482 475 435 431 502 425 400 335 337 336 339 342 342 344 347 350 354 361 367 371 372 372 371 324 326 395 395 382 384 398
435 421 404 382 363 423 420 437 430 420 429 401 396 340 331 330 319 328 337 342 349 347 349 353 363 365 371 370 368 363 375 380 392 369 320 307 354 391
416 396 373 354 424 419 428 448 421 397 351 340 331 326 314 323 332 380 377 374 380 418 419 413 406 389 391 392 398 404 397 394 381 323 310 306 391 387
387 362 372 426 416 441 413 407 358 336 334 327 314 318 397 340 331 318 318 321 322 334 350 375 373 378 377 382 385 384 380 375 378 314 307 326 382 384
359 475 425 413 435 417 376 324 333 327 314 357 342 327 322 308 332 292 333 335 336 338 343 347 351 354 348 311 307 374 369 375 380 324 305 319 360 364
467 422 412 442 411 346 321 362 329 390 337 317 313 301 294 288 314 322 317 318 322 324 328 334 336 343 344 290 314 362 360 365 367 363 375 311 351 344
409 412 394 378 332 342 364 385 371 306 302 298 292 317 316 315 304 304 301 300 297 336 317 332 334 325 337 308 314 311 346 349 358 360 357 364 336 302
414 400 371 334 346 358 347 305 302 309 308 305 312 312 301 293 292 289 291 298 312 315 309 304 309 316 329 340 324 314 327 333 343 343 345 350 358 313
412 382 342 344 344 351 303 297 309 297 294 296 303 294 288 284 285 281 278 279 292 286 285 291 284 295 296 304 308 323 339 345 327 307 333 337 346 352
344 340 341 335 323 311 301 298 293 286 294 285 284 284 286 282 277 282 275 275 267 279 269 287 276 274 265 276 289 294 292 301 302 307 304 309 311 303
320 330 333 322 307 297 295 290 292 294 287 283 273 276 276 276 274 276 275 274 272 268 267 270 264 262 271 285 262 275 247 272 283 288 293 279 298 287

GFSNE_2pvu_pres_024.txt.gz
Presure
241 235 230 203 220 229 230 228 250 241 208 213 155 194 215 223 217 223 219 232 240 246 254 118 469 467 465 460 455 451 453 456 469 479 481 496 419 376
228 218 225 197 219 233 235 217 102 126 228 196 71 155 213 197 228 208 236 271 388 461 452 445 439 436 431 423 417 413 406 413 424 447 468 491 492 410
223 215 216 226 230 173 206 179 211 209 225 223 200 223 152 67 230 452 471 458 444 431 419 410 404 436 456 456 454 454 457 493 397 399 423 480 475 471
165 218 146 175 206 225 209 207 218 223 225 235 251 271 475 484 471 458 439 423 414 404 455 444 433 436 438 437 429 423 418 431 504 416 394 410 471 452
221 135 180 168 200 207 213 219 227 235 254 273 488 476 419 451 441 423 409 397 448 435 440 437 429 424 410 402 403 403 402 402 416 474 400 394 452 436
221 208 225 217 209 218 227 236 257 276 487 450 407 455 433 416 408 438 496 442 425 440 411 381 390 396 398 409 417 419 405 392 404 413 455 180 183 434
220 219 204 215 218 235 253 267 465 401 388 388 443 419 401 454 495 449 453 424 377 365 387 397 424 437 441 442 449 451 453 460 468 400 455 395 347 193
202 214 215 230 251 265 480 458 460 447 436 423 405 387 442 427 436 435 409 374 392 422 446 447 453 471 468 482 484 489 493 508 539 581 411 426 371 408
213 227 247 260 477 476 468 455 445 421 399 388 404 424 440 464 464 439 458 545 558 539 529 501 536 543 522 483 512 504 499 515 537 569 409 434 370 403
239 249 326 459 465 454 452 443 421 388 371 424 442 468 466 442 455 553 465 433 355 360 356 353 361 401 471 465 464 476 495 523 543 569 411 428 363 392
303 463 465 458 452 445 434 415 384 367 420 431 425 431 433 430 362 401 342 342 341 344 345 353 359 355 366 450 471 500 505 522 549 513 568 394 360 392
472 461 452 442 434 413 392 374 478 425 441 464 421 415 357 400 341 336 330 328 333 337 339 343 348 354 357 353 371 482 509 436 425 448 618 367 363 395
465 454 436 414 391 385 505 462 424 437 419 404 364 344 337 323 322 324 335 338 343 345 351 356 357 354 352 354 354 357 364 489 507 515 362 363 373 402
445 418 393 442 509 480 440 420 408 411 372 331 337 322 317 321 335 347 348 347 355 377 418 408 409 382 350 351 354 360 365 367 371 371 373 378 383 393
401 378 494 479 452 413 422 397 399 341 338 327 315 313 345 328 319 315 336 342 336 327 365 374 370 375 383 392 387 356 361 364 370 329 297 288 289 386
503 481 462 422 409 425 393 376 323 332 319 323 333 320 322 311 331 326 328 330 337 345 339 350 374 373 374 382 391 400 371 372 375 377 390 389 380 374
475 451 407 414 419 384 337 346 337 372 329 311 311 301 309 300 324 318 319 319 322 334 330 345 347 337 365 382 384 385 385 383 377 371 372 347 346 348
434 403 415 393 376 327 366 371 333 303 300 300 294 315 315 311 303 304 303 304 327 331 325 333 342 349 357 303 312 368 370 371 374 346 330 311 303 303
405 406 393 352 319 368 353 319 307 305 309 312 310 314 297 295 287 290 314 330 320 332 336 344 324 334 355 364 361 367 373 380 372 378 312 303 299 373
400 382 340 338 360 319 302 296 313 303 295 282 304 291 290 287 287 286 287 296 282 284 301 309 327 335 317 330 332 345 362 363 366 376 350 330 327 362
369 341 333 347 316 305 297 308 298 291 294 295 292 290 286 282 283 277 282 279 284 284 281 274 288 308 324 336 317 333 340 341 356 363 351 331 308 330
332 331 329 326 305 305 308 298 297 295 294 294 284 293 291 284 283 286 271 273 270 273 274 280 275 266 289 302 312 342 326 313 338 341 349 346 326 329
329 332 315 304 304 291 289 287 285 284 285 291 292 289 282 283 282 275 278 282 270 267 273 264 262 265 272 260 293 295 308 327 343 342 321 333 350 352

GFSNE_2pvu_pres_027.txt.gz
Presure
194 203 213 231 245 252 253 240 236 252 237 136 163 236 223 213 221 215 223 222 219 223 232 231 222 232 242 246 260 284 304 312 310 313 311 298 296 292
216 228 240 213 161 190 243 252 240 132 129 210 216 216 62 216 222 226 181 235 234 234 157 372 483 481 473 466 464 464 460 454 450 453 458 461 468 481
248 251 157 231 247 235 165 192 223 231 228 222 123 210 147 219 224 235 79 424 418 409 402 405 452 444 443 441 434 428 424 422 421 422 424 428 435 452
126 168 244 233 246 136 225 223 220 222 218 229 227 236 424 505 445 480 468 456 450 443 435 427 416 415 416 463 454 456 451 450 452 453 455 461 476 413
242 249 229 135 168 222 218 216 217 224 235 302 507 500 487 476 469 457 442 425 414 406 414 458 468 470 453 443 437 444 445 438 435 436 437 439 440 457
226 222 200 184 217 213 216 224 243 272 497 489 483 477 467 451 437 421 402 451 442 433 441 457 440 435 427 415 402 374 372 383 387 390 397 410 420 428
220 168 216 211 214 225 243 263 495 485 478 472 463 450 428 410 392 454 468 485 473 455 459 444 422 416 423 437 446 449 450 450 447 446 440 409 399 412
153 210 212 218 236 257 494 484 475 462 451 435 425 405 390 453 452 438 439 445 497 522 541 541 528 521 530 535 545 555 566 514 564 482 464 447 448 407
203 216 227 247 429 490 478 465 443 410 393 387 420 438 454 460 428 437 424 424 413 361 346 346 360 359 364 364 364 375 485 486 491 505 515 502 469 455
223 239 270 450 481 466 450 423 393 485 517 485 454 442 456 432 411 366 342 349 339 340 337 341 350 349 356 360 354 362 463 476 498 494 484 508 521 503
253 362 484 471 456 435 521 523 504 472 438 425 439 424 409 341 361 336 331 333 327 335 344 345 348 346 350 353 355 356 458 453 462 521 508 508 539 559
376 477 462 572 545 513 490 478 435 419 427 407 416 346 356 333 322 326 330 353 358 367 452 355 346 347 358 350 358 356 361 476 425 507 565 535 555 586
472 459 523 513 491 475 442 421 437 400 401 351 333 335 320 322 335 330 325 327 333 325 361 387 406 416 373 361 360 362 357 398 513 419 526 562 558 403
442 507 498 476 460 419 427 406 392 366 332 339 317 316 325 322 314 338 338 339 346 354 344 370 364 374 405 378 357 358 361 361 507 512 490 406 410 432
499 482 459 437 412 428 387 377 336 409 338 329 323 322 309 315 325 321 326 325 333 334 346 350 375 375 375 386 384 352 361 367 362 385 487 522 469 370
474 445 423 417 415 380 365 388 391 321 316 310 304 306 312 320 309 306 320 336 324 331 334 355 355 356 377 385 394 371 356 363 370 368 359 362 365 362
439 413 419 396 371 363 374 374 320 311 301 306 293 312 308 304 305 312 320 318 332 347 325 342 349 357 351 383 393 376 363 368 370 369 372 378 373 389
410 419 385 353 357 378 350 322 313 302 309 312 316 303 290 295 290 301 303 292 310 333 336 326 349 365 306 308 375 379 381 383 383 301 286 285 296 365
417 377 347 358 373 324 310 300 323 308 308 300 309 293 291 286 287 281 287 287 291 298 326 333 339 325 355 294 372 366 368 307 365 360 366 372 371 372
361 341 345 349 320 312 296 316 305 303 294 297 298 291 287 286 279 279 285 287 285 282 285 309 342 321 331 347 365 375 378 379 381 307 310 310 302 302
336 337 337 314 315 315 314 301 299 300 294 291 289 284 284 291 279 277 283 274 278 276 270 272 290 328 340 322 326 357 367 367 370 298 334 300 315 368
332 329 314 305 296 288 288 288 286 284 282 280 282 283 296 282 291 284 277 271 274 270 274 276 266 282 320 331 310 349 361 351 347 358 310 345 334 341
329 303 299 287 289 277 288 275 273 284 299 298 283 264 288 287 287 286 283 278 274 269 272 260 275 270 294 315 332 299 328 354 341 331 347 346 347 337

GFSNE_2pvu_pres_030.txt.gz
Presure
215 242 240 196 159 237 261 242 147 239 139 157 253 225 159 204 228 225 223 223 223 224 226 226 223 225 232 232 239 189 244 242 241 239 236 236 236 235
242 187 220 227 254 249 134 212 153 191 237 220 218 214 61 175 218 220 223 226 229 232 241 172 210 353 352 353 284 358 485 443 434 361 332 329 256 252
224 225 251 253 226 207 189 194 233 206 225 221 199 184 149 210 198 175 270 129 498 490 481 189 472 477 471 470 466 464 461 462 463 466 467 451 470 470
249 251 232 144 151 229 234 218 219 162 223 221 217 161 237 283 497 502 491 481 478 468 369 448 445 436 434 434 431 429 431 434 434 431 429 433 433 436
220 247 142 164 232 221 216 208 217 217 228 239 334 505 494 484 479 465 455 446 437 428 415 410 409 422 498 507 475 465 460 457 462 501 476 466 463 432
147 186 228 219 219 218 223 218 235 267 460 487 478 469 462 449 434 420 403 389 386 379 419 456 454 458 458 463 469 474 472 488 436 431 430 439 443 444
201 214 215 210 220 219 234 286 499 487 529 580 580 567 545 536 526 515 484 462 486 468 449 448 450 457 536 537 537 547 560 543 458 440 425 407 385 388
214 208 214 217 227 288 425 484 474 578 553 527 514 499 484 466 447 438 433 427 424 421 440 363 363 359 358 354 355 363 366 366 372 531 545 559 459 448
220 222 224 261 311 503 477 521 533 505 485 471 458 440 431 427 414 411 406 380 352 351 355 331 351 346 345 345 353 356 361 367 367 368 380 492 490 504
224 241 278 404 488 476 526 519 492 457 435 426 431 419 418 423 357 341 334 336 334 332 328 336 361 359 358 358 351 350 356 368 364 364 470 463 485 500
255 294 338 480 515 517 506 478 434 421 439 413 413 362 337 331 333 323 319 337 342 336 337 333 350 413 416 377 359 363 359 360 352 426 465 465 482 498
304 321 471 508 506 487 459 428 442 396 396 403 337 335 325 322 329 329 337 344 343 345 352 357 354 373 403 421 388 359 354 360 360 504 511 448 510 510
319 470 505 503 475 444 427 412 390 396 338 328 333 326 328 332 332 332 326 331 329 343 338 349 354 378 376 388 415 360 355 362 360 493 405 522 533 543
462 486 499 470 434 431 396 379 402 378 343 329 321 326 318 322 323 318 310 325 340 329 336 343 354 365 369 380 394 362 357 358 360 456 401 468 542 548
502 486 462 430 430 389 367 393 387 338 317 309 301 312 314 317 311 325 331 334 345 350 332 346 348 343 313 383 391 353 358 356 356 448 393 420 497 581
484 453 460 421 372 356 375 390 335 315 308 301 311 305 305 298 296 307 305 304 323 344 321 340 361 372 376 375 377 357 354 357 351 451 420 396 393 397
444 427 399 363 363 384 381 334 304 306 302 313 310 304 298 292 294 298 296 294 307 329 323 333 360 367 306 381 373 359 355 358 356 352 405 419 414 408
419 388 357 360 370 329 312 305 303 318 308 306 301 297 291 286 282 287 285 290 285 306 324 319 328 362 305 362 364 371 359 358 358 362 354 348 349 349
375 353 348 353 316 326 314 316 314 310 308 293 294 303 288 288 280 283 281 290 292 286 302 314 324 351 368 289 357 353 358 372 354 341 362 371 378 381
346 346 338 316 306 304 302 296 293 296 295 293 292 289 294 288 278 281 280 286 282 283 276 296 322 328 350 370 370 362 347 359 362 353 283 283 370 374
341 333 310 302 299 289 293 286 292 273 267 267 280 282 276 281 292 283 280 278 283 285 291 284 293 336 329 350 372 365 333 328 318 350 353 356 316 356
337 310 301 294 283 294 287 291 266 264 265 262 282 376 331 283 259 287 281 281 281 281 284 281 287 303 325 333 361 365 361 321 281 300 302 324 369 358
302 302 289 293 289 280 306 283 291 353 345 346 346 349 340 268 369 287 288 282 282 276 275 274 278 295 329 312 347 350 347 355 290 344 351 296 321 294

GFSNE_2pvu_pres_033.txt.gz
Presure
185 202 260 274 251 236 233 268 267 250 247 278 139 148 230 226 224 224 225 214 225 222 222 224 225 228 228 227 227 217 223 225 225 223 222 221 217 216
214 199 257 235 238 261 254 240 284 246 226 170 198 79 201 217 222 225 186 240 184 246 251 254 253 255 256 259 262 117 178 266 219 267 267 156 255 247
267 231 144 262 254 233 264 185 145 199 189 185 231 168 233 240 257 63 520 512 505 496 487 481 477 477 479 481 485 120 483 483 481 481 482 482 487 494
226 258 261 243 269 137 145 144 213 220 230 236 238 268 349 564 593 619 597 582 572 554 562 575 586 449 437 433 433 73 433 426 423 426 428 434 439 449
262 251 247 215 136 153 164 211 230 230 239 285 343 527 561 544 537 530 524 518 511 502 500 510 509 507 501 489 419 422 474 464 469 469 486 507 476 466
207 237 157 181 211 217 230 236 241 274 321 424 539 538 517 498 473 459 452 444 444 438 449 457 461 485 505 491 465 453 454 502 558 579 515 466 481 466
217 218 205 209 223 233 235 259 284 331 510 529 511 487 457 441 434 423 423 423 414 428 438 430 414 388 385 400 398 381 369 366 366 368 534 554 487 468
182 164 212 226 230 241 267 314 324 518 507 490 458 448 422 418 422 434 376 367 351 363 344 343 349 341 345 340 341 341 341 341 350 362 368 369 559 569
209 212 225 229 248 279 326 383 519 487 462 447 452 412 429 366 348 343 344 343 337 327 328 338 343 352 358 362 412 416 354 352 351 351 355 365 370 370
216 224 234 257 308 331 453 521 478 439 442 412 408 438 355 329 331 320 319 335 353 354 338 343 352 359 370 353 389 416 419 357 364 359 354 361 365 364
218 237 267 314 328 501 511 478 433 436 397 409 428 337 346 324 333 336 329 327 332 340 335 347 345 346 360 387 375 394 412 390 361 359 360 366 364 365
241 267 309 324 510 496 470 436 415 386 405 403 351 342 342 335 323 324 313 318 321 338 361 336 345 353 362 378 375 381 406 372 358 359 362 362 368 518
284 307 320 508 487 465 436 403 381 398 381 341 325 328 308 328 318 316 327 323 320 338 341 328 343 353 351 375 382 390 381 356 360 366 362 454 452 423
304 329 529 486 447 420 383 369 375 392 344 327 318 306 321 311 308 305 307 302 302 335 328 333 362 367 379 377 396 378 354 361 366 366 449 399 409 484
347 559 486 448 405 373 369 388 398 345 326 306 306 317 311 301 301 299 308 296 299 311 335 336 364 374 375 393 374 357 355 368 357 444 405 389 437 485
557 486 450 408 370 373 388 391 319 321 308 326 314 305 305 294 298 293 300 289 296 296 315 338 351 372 371 381 361 366 360 357 353 430 405 381 497 572
507 451 408 372 369 347 333 321 318 316 319 311 303 296 294 299 290 293 284 295 282 288 303 319 340 374 298 366 372 361 355 357 349 359 412 395 391 465
453 420 369 356 339 324 315 312 305 300 297 296 286 296 298 292 294 294 291 286 283 285 287 303 329 362 371 356 362 370 354 357 352 345 353 408 415 402
421 369 350 345 315 312 305 288 297 296 289 278 267 267 265 276 277 286 293 290 286 275 270 281 315 353 368 369 346 352 350 300 367 359 346 346 353 360
363 341 344 313 308 300 293 291 282 295 289 268 268 265 261 262 290 275 272 293 286 282 290 289 301 326 357 367 370 298 350 304 283 367 362 359 361 364
344 340 305 304 299 303 294 279 287 344 358 320 271 354 350 351 282 343 284 267 289 283 274 286 291 332 349 364 368 330 340 344 297 272 357 354 355 361
320 305 300 299 292 302 289 267 321 332 329 318 352 347 354 366 370 349 264 280 280 284 282 286 279 306 329 354 366 335 300 339 345 337 276 354 349 351
307 299 297 297 297 287 289 323 377 374 336 350 348 343 349 350 350 368 360 288 283 285 281 279 273 298 336 349 358 349 297 290 327 345 340 348 362 351

GFSNE_2pvu_pres_036.txt.gz
Presure
194 188 185 193 200 210 223 266 241 243 265 223 256 236 212 143 152 156 207 239 244 242 242 244 265 271 314 312 307 261 233 231 234 233 236 240 240 240
185 195 196 200 213 226 268 222 270 284 263 179 141 157 216 209 216 252 262 305 368 453 565 551 557 566 581 590 587 565 531 500 498 412 346 234 224 224
197 196 201 213 232 260 239 281 266 241 134 203 213 146 240 251 65 336 214 559 544 513 492 493 495 505 520 533 546 564 586 614 536 484 481 488 142 423
202 199 211 253 224 268 147 228 230 194 218 181 228 248 266 325 340 550 525 482 470 458 387 472 465 462 462 466 476 489 518 548 568 581 450 443 451 458
197 224 259 230 241 234 231 207 173 179 233 250 266 295 339 532 521 474 466 450 437 439 455 458 466 461 459 444 451 445 452 472 484 489 498 499 413 363
233 233 200 271 224 220 181 188 225 238 253 280 323 382 521 476 463 440 438 449 461 402 357 354 355 350 353 355 361 373 399 433 440 448 458 462 470 479
223 279 265 228 212 199 218 230 239 254 291 349 533 495 466 433 426 454 424 357 343 340 334 337 354 341 351 350 346 338 341 346 354 358 372 401 416 510
291 231 212 172 208 221 224 239 274 320 514 517 473 456 417 455 404 358 339 341 323 351 346 343 357 352 362 362 363 362 348 350 367 351 353 356 356 355
225 207 191 209 225 232 245 275 354 500 517 460 440 418 442 377 365 347 343 347 345 340 325 329 345 359 348 358 356 364 370 368 359 431 398 367 364 359
173 198 210 222 229 255 299 510 496 470 452 417 406 422 371 352 332 325 306 324 331 345 342 344 354 342 344 350 364 364 384 385 392 421 417 370 361 367
188 211 218 231 265 326 485 513 457 429 401 383 427 371 348 328 314 320 313 313 307 315 335 342 342 334 355 358 360 363 378 384 392 413 403 382 373 370
207 219 237 265 349 524 513 460 412 385 374 404 370 346 330 308 306 310 306 298 304 300 306 334 338 335 367 372 381 385 395 396 384 373 361 360 363 366
215 235 277 352 568 509 458 405 381 392 399 382 341 315 316 317 322 309 303 292 290 297 303 311 337 345 377 374 386 380 376 365 357 359 357 359 396 424
242 312 392 519 510 463 403 372 393 352 346 335 314 312 316 314 311 310 303 294 290 290 295 295 323 340 374 371 371 364 352 353 359 357 445 423 395 387
307 477 504 507 465 406 368 373 346 335 332 325 320 324 314 306 301 304 304 299 288 287 293 291 316 333 377 367 381 362 355 359 350 401 407 390 438 455
494 509 508 464 407 372 361 339 328 320 311 293 290 291 294 279 279 290 291 299 294 291 289 290 278 327 378 367 362 362 358 348 347 404 393 400 458 495
511 518 459 396 366 355 352 327 311 307 295 290 289 289 290 275 272 271 279 275 293 290 293 288 284 325 370 292 375 358 354 357 349 388 399 382 423 534
522 450 386 363 349 345 319 307 309 305 292 278 296 341 329 274 271 269 264 284 275 293 290 288 294 317 367 370 335 353 347 367 383 350 424 416 374 392
455 378 353 345 321 305 299 302 306 291 315 279 331 337 353 359 261 377 319 260 290 281 292 288 283 310 334 372 355 350 361 367 367 377 355 372 404 425
375 347 329 316 305 299 303 300 284 328 311 332 376 357 327 344 348 392 357 299 303 281 291 287 279 310 334 367 343 343 353 346 355 361 364 364 362 367
344 326 314 306 295 304 298 296 294 318 308 376 371 362 352 347 346 345 374 355 362 295 288 286 279 306 332 372 352 343 346 272 350 355 354 352 356 362
322 312 305 294 306 314 322 327 368 369 369 358 342 348 344 336 329 350 363 342 366 296 286 287 277 303 332 360 353 319 339 367 327 353 353 354 350 351
311 303 293 308 310 305 294 342 340 364 352 345 344 337 337 376 368 385 350 350 393 290 285 287 275 299 333 350 361 297 334 339 352 359 356 353 357 360

GFSNE_2pvu_pres_039.txt.gz
Presure
203 208 197 191 182 191 181 185 202 208 202 233 265 245 261 154 234 202 202 197 182 194 242 255 277 352 367 396 384 554 551 559 576 632 421 383 275 249
202 198 180 187 184 185 197 203 210 227 268 183 127 248 238 71 208 202 176 186 255 283 439 548 535 522 517 505 492 489 490 487 491 508 558 601 588 547
181 182 190 185 195 201 209 217 238 259 263 257 215 185 214 170 229 246 166 468 538 311 497 482 481 481 481 480 483 480 469 462 464 467 478 504 561 578
187 189 189 200 202 211 227 270 235 286 237 197 160 216 220 237 250 404 543 502 479 86 459 484 423 402 374 370 368 366 369 381 407 458 452 469 485 557
140 137 199 207 210 238 260 277 239 218 176 216 222 223 241 288 586 499 471 444 440 468 417 364 364 358 344 346 341 344 353 343 356 361 385 442 459 480
197 199 211 225 270 250 273 224 225 195 221 221 239 257 540 500 469 444 439 451 407 365 344 337 345 345 349 359 355 363 356 355 357 353 354 365 392 449
200 214 239 203 260 240 221 215 202 225 231 242 309 522 484 438 423 454 408 379 368 361 341 334 350 352 359 365 376 363 359 355 362 368 371 366 351 372
223 264 145 192 210 225 211 215 226 228 246 515 516 474 423 404 426 377 369 351 337 342 327 333 332 321 354 351 348 345 344 352 363 365 369 379 362 355
251 140 157 224 207 216 209 226 233 255 533 507 463 412 389 423 377 353 335 333 326 329 316 314 308 320 328 351 351 372 377 367 363 366 389 388 387 368
141 158 221 211 210 216 225 237 267 533 497 451 403 397 421 386 352 333 318 311 315 318 305 300 300 304 324 345 389 384 383 385 385 388 387 389 395 416
162 211 197 211 217 227 238 423 541 489 440 393 418 421 341 360 334 312 305 322 304 307 307 301 300 306 309 334 395 384 396 388 388 385 389 387 393 402
204 210 209 217 228 243 341 547 487 429 384 385 361 340 347 332 325 330 327 317 302 296 302 294 297 295 301 333 384 372 380 371 373 366 362 368 368 369
211 208 221 228 247 438 537 477 417 379 381 350 342 334 331 328 330 326 324 321 303 296 295 290 293 302 289 321 385 383 382 363 355 361 363 359 383 460
214 225 231 249 541 529 469 400 377 360 352 338 325 310 302 301 297 303 288 303 318 300 301 299 297 296 285 324 382 361 363 347 341 349 402 399 387 388
225 236 279 522 525 453 396 369 351 356 338 316 306 304 301 290 287 292 300 282 285 278 285 303 299 294 296 320 374 351 353 369 359 311 403 375 393 424
233 315 507 523 432 385 364 354 345 315 306 306 308 306 294 290 279 302 353 304 281 270 286 285 299 292 303 332 368 350 363 346 344 404 405 367 399 429
311 490 515 417 376 359 344 328 315 307 312 307 291 294 333 317 296 330 353 369 294 291 296 285 295 290 300 341 366 349 362 278 345 395 422 370 393 427
458 517 410 370 350 336 325 317 309 316 308 279 314 276 319 335 375 365 342 342 360 351 313 294 293 293 301 374 344 341 357 294 363 374 388 374 370 406
522 405 365 348 335 321 309 311 336 337 334 322 389 397 383 376 370 359 359 353 382 353 314 296 293 286 307 382 345 342 355 358 360 361 369 380 374 368
404 361 346 332 319 304 321 326 335 323 327 369 363 361 356 350 356 355 344 353 382 367 299 288 294 283 322 372 299 350 271 351 360 353 357 370 377 387
358 344 330 315 300 307 334 333 294 287 373 362 353 347 348 348 346 346 338 347 367 369 304 285 294 287 338 363 329 356 358 349 350 350 345 351 358 370
337 325 313 299 296 337 328 318 318 377 368 361 353 355 356 376 384 383 405 354 348 333 300 290 285 296 346 365 299 356 355 351 348 352 356 359 339 343
322 309 299 293 338 324 320 388 384 374 367 361 356 354 346 345 365 382 397 404 359 307 289 293 284 304 344 366 289 345 352 352 347 345 355 326 339 380

GFSNE_2pvu_pres_042.txt.gz
Presure
186 183 198 207 205 204 206 207 186 185 186 180 192 200 206 226 282 269 269 256 206 184 183 187 213 223 250 267 413 545 538 536 535 538 540 411 376 344
183 194 199 204 205 212 194 185 169 187 191 192 204 233 302 257 269 259 218 191 197 191 226 249 370 530 512 491 479 474 479 484 484 487 490 492 497 513
189 199 204 210 206 191 191 151 193 199 205 213 268 230 266 255 230 202 183 211 232 255 430 497 479 480 485 454 438 425 418 414 414 421 445 458 505 496
198 205 210 195 193 187 171 196 205 138 240 139 275 254 225 239 215 222 233 252 333 474 454 470 468 412 391 381 374 369 357 353 354 353 357 371 370 374
203 208 192 185 189 195 190 142 137 194 152 171 238 231 180 216 225 241 299 476 445 436 467 418 384 369 354 351 344 339 341 337 348 356 367 378 368 364
200 193 186 169 195 193 127 133 141 149 194 228 223 205 224 230 253 499 457 421 441 420 400 367 354 353 344 350 336 326 338 349 348 352 360 367 380 369
193 188 188 197 211 237 131 139 230 222 242 174 222 224 239 262 475 431 415 435 394 393 358 332 349 333 333 324 317 322 323 334 359 365 362 356 357 361
148 191 202 215 130 135 134 216 240 215 221 226 235 248 513 458 418 396 398 391 361 362 343 319 341 318 319 314 311 309 307 335 399 396 396 389 377 368
197 212 236 127 182 266 191 229 212 216 226 239 252 502 444 408 430 417 398 364 350 340 325 310 323 315 322 308 308 303 303 334 397 388 398 398 393 382
216 245 233 292 207 209 214 186 216 227 238 381 490 443 402 384 390 387 352 331 327 328 318 313 317 313 316 306 299 304 301 332 385 389 382 382 389 395
226 243 215 197 226 216 214 216 226 241 412 474 424 389 387 358 343 341 330 327 324 318 322 315 316 305 307 307 298 304 296 358 376 369 364 367 374 369
280 168 217 213 170 216 221 231 243 496 446 397 376 364 372 348 327 318 307 293 293 288 312 311 319 309 308 317 309 304 317 386 372 370 365 354 359 365
237 220 213 219 216 222 237 276 485 423 383 367 361 358 335 321 311 312 309 303 290 289 289 280 276 284 294 302 309 299 321 372 355 353 370 353 339 379
211 222 212 216 227 240 382 466 401 373 362 345 330 320 313 314 314 314 316 303 303 275 323 297 275 269 282 294 297 293 320 362 351 380 366 334 429 389
206 213 222 220 242 506 447 392 368 355 337 327 317 311 314 323 310 286 293 328 328 324 328 348 289 268 278 289 290 302 357 344 385 363 346 386 391 374
211 217 229 324 497 430 383 365 351 332 323 313 315 342 341 337 333 345 344 340 380 376 347 379 338 289 305 291 289 310 357 352 358 349 363 387 379 378
219 245 365 472 412 375 358 345 328 319 313 344 344 337 326 325 321 394 383 382 373 355 368 370 341 326 296 300 302 328 345 359 343 350 361 391 368 379
301 485 451 397 366 350 335 323 317 313 345 347 329 276 251 367 362 365 362 352 360 358 364 360 333 316 288 291 304 354 349 349 345 349 362 380 394 375
532 430 385 361 346 328 318 314 342 347 334 335 384 381 381 363 356 353 354 360 352 349 376 348 327 296 297 301 365 346 346 299 343 351 361 367 403 368
424 381 357 341 321 312 311 341 339 345 391 357 377 367 363 360 373 381 387 362 344 351 352 354 304 293 292 330 350 342 343 341 345 345 359 370 375 408
377 352 335 318 308 308 334 329 376 409 368 385 378 374 365 356 352 354 390 393 343 358 359 322 285 290 302 365 312 343 312 342 340 352 351 343 351 353
348 333 314 306 306 330 321 356 282 393 397 393 387 377 372 365 350 347 376 401 359 357 333 289 292 292 357 358 321 349 346 343 347 344 324 331 341 338
330 312 304 311 329 326 330 249 323 352 380 389 382 380 378 371 357 340 369 346 345 344 297 289 288 310 362 343 344 344 347 348 351 329 335 319 331 335

GFSNE_2pvu_pres_045.txt.gz
Presure
190 190 183 184 188 188 189 190 183 192 198 207 205 193 195 194 195 202 204 225 160 205 288 271 223 211 198 204 228 236 241 251 276 302 534 536 543 556
187 185 186 182 188 189 188 182 189 201 209 198 189 195 196 203 195 135 138 251 153 255 223 213 223 228 239 251 310 469 474 484 486 486 490 497 508 516
191 188 183 187 184 186 183 187 198 209 193 196 193 202 209 128 134 140 221 150 207 216 223 239 246 260 405 486 472 430 426 412 399 393 391 398 403 415
193 190 188 182 188 182 189 194 202 194 193 160 202 180 133 135 146 148 211 214 227 231 246 265 453 437 473 410 398 391 367 362 361 362 364 346 367 366
198 194 185 189 182 189 193 198 196 194 201 210 206 126 160 139 148 210 222 227 243 261 429 435 415 426 395 380 365 351 350 341 352 346 337 337 342 352
201 197 189 180 190 192 198 195 197 203 219 197 173 138 141 222 214 224 235 251 290 432 417 406 418 386 366 356 344 336 327 330 322 318 316 313 325 337
203 184 185 188 194 199 194 200 208 236 269 163 135 221 222 215 230 243 257 436 410 430 446 403 387 363 354 346 334 317 318 314 308 311 316 317 319 338
182 191 189 197 194 195 204 218 240 233 136 248 233 216 223 237 246 264 416 403 397 415 433 360 360 351 342 338 324 321 316 312 314 308 313 317 310 412
185 192 196 198 199 208 233 127 171 154 228 221 214 230 240 253 437 400 381 375 361 358 365 332 339 340 334 335 328 320 314 311 307 306 306 318 340 400
187 196 195 203 217 221 163 151 197 224 216 226 240 247 362 415 392 376 375 355 345 337 333 306 304 307 309 328 317 315 321 314 310 312 309 311 391 380
194 200 208 227 127 285 208 227 215 212 228 246 253 425 403 381 367 352 328 328 312 307 318 308 305 306 299 302 294 277 299 305 307 311 302 331 380 379
203 206 131 267 286 248 231 224 217 235 245 416 408 388 373 359 345 336 323 313 309 305 314 304 310 308 291 284 302 278 275 283 296 311 322 380 376 378
166 263 288 269 229 215 218 227 243 247 420 392 376 365 351 337 330 319 327 340 350 344 326 277 274 296 299 307 330 302 272 280 303 310 331 368 367 391
288 272 239 215 222 223 243 241 368 403 381 367 354 341 331 324 325 356 348 346 345 263 380 338 320 318 307 315 347 335 275 294 308 315 365 363 379 322
251 199 217 216 236 236 241 420 390 374 360 343 331 325 319 359 351 338 330 258 371 386 405 393 378 363 359 370 347 326 289 300 307 347 351 365 369 381
214 203 228 237 236 316 409 384 367 349 334 324 324 352 343 349 405 352 392 377 368 374 386 389 360 365 334 365 320 316 300 298 321 350 359 357 370 379
224 232 231 321 429 397 376 358 338 329 321 351 346 373 398 391 388 384 381 366 360 356 360 366 349 342 380 342 318 297 298 323 357 291 350 365 377 386
227 249 392 422 390 368 349 332 323 341 342 347 353 404 378 384 377 372 366 366 394 371 360 354 354 358 357 313 302 303 323 353 355 357 350 358 360 385
334 463 414 381 359 337 326 317 339 336 343 395 388 395 392 383 378 371 363 357 388 372 352 347 358 357 309 294 295 317 352 356 345 358 347 353 343 355
477 413 378 357 334 320 312 335 328 332 276 297 389 393 392 386 376 374 365 354 391 375 341 368 349 304 298 299 330 308 353 345 344 335 335 335 344 358
412 373 350 329 314 309 331 326 332 303 366 374 385 394 400 393 382 374 358 366 396 345 358 341 302 301 299 344 352 346 347 345 349 321 333 332 339 342
370 345 325 307 307 327 326 287 321 358 363 373 389 388 397 412 396 379 355 380 351 351 332 302 299 296 344 289 334 350 352 343 332 323 338 334 333 335
344 323 306 303 326 323 264 317 335 363 364 386 380 395 411 421 425 392 362 364 349 328 300 296 294 336 338 341 364 357 353 327 355 328 330 323 322 320

GFSNE_2pvu_pres_048.txt.gz
Presure
223 220 217 216 210 201 203 196 193 190 188 191 187 187 192 190 191 195 202 198 204 206 212 216 226 137 138 149 155 236 215 214 142 195 239 244 251 261
226 222 218 215 214 210 202 204 202 200 194 197 191 192 187 194 193 201 202 206 205 212 235 250 134 160 145 150 211 216 235 252 273 363 486 477 476 476
220 218 219 212 213 213 210 206 205 204 201 202 198 183 196 194 198 204 207 210 220 251 144 254 198 145 191 226 243 269 393 463 444 426 416 409 413 414
217 217 218 216 214 215 212 211 210 215 213 213 191 197 193 200 207 209 218 254 307 297 231 146 220 230 260 280 432 432 431 407 395 384 386 375 368 361
219 217 219 219 219 217 217 218 220 220 219 203 195 197 202 208 212 232 256 304 230 224 223 244 261 312 434 448 430 414 391 374 358 357 353 351 347 343
218 218 221 222 223 222 223 221 220 220 199 197 200 205 212 225 211 295 232 216 225 245 260 282 417 426 442 435 400 376 363 344 340 336 336 331 335 327
223 225 225 223 222 221 222 221 204 195 196 201 211 220 180 248 294 223 226 238 254 272 415 386 395 372 399 386 375 361 348 338 332 325 318 323 318 316
215 215 218 220 224 222 202 195 197 201 210 218 220 248 307 217 218 246 247 261 409 396 390 370 384 354 353 343 352 346 341 336 333 330 322 312 312 313
214 219 222 222 200 191 197 198 204 212 223 248 303 283 217 222 250 248 307 402 380 370 358 331 331 334 328 323 323 313 311 313 326 323 328 329 321 316
220 221 200 193 195 202 204 208 219 240 268 283 195 227 237 249 260 407 394 375 351 347 343 325 318 319 315 320 331 322 315 305 299 301 284 301 302 314
191 195 197 198 204 209 219 216 272 278 269 251 225 250 248 381 395 381 361 346 331 323 331 322 316 317 318 321 330 323 298 304 285 299 292 281 285 296
194 199 204 214 220 235 279 274 266 248 218 250 243 328 395 378 362 352 344 337 329 319 365 358 350 353 337 326 351 354 311 337 311 309 334 279 281 296
204 213 222 237 276 268 257 236 236 244 246 313 394 379 361 350 341 354 370 365 357 356 359 343 332 331 347 401 332 358 330 320 306 326 339 278 288 305
218 243 267 264 250 237 239 234 251 288 403 383 367 352 345 354 359 357 389 416 417 423 402 400 380 372 393 393 385 384 390 346 365 335 324 300 309 349
266 258 243 233 235 235 250 254 410 390 370 354 345 336 356 355 355 354 401 348 272 402 394 375 365 364 378 381 367 374 357 375 331 322 307 310 359 357
238 232 221 228 242 260 435 403 379 358 343 335 339 343 350 351 421 412 401 390 378 372 387 388 358 360 372 357 354 370 360 326 323 310 320 349 363 349
220 220 232 246 389 423 394 371 350 336 329 338 339 339 359 398 407 407 403 391 381 367 365 392 367 359 363 355 372 345 320 304 301 341 342 354 349 336
231 245 313 467 416 385 362 343 332 322 333 323 333 385 387 401 399 404 402 393 379 365 379 395 357 352 358 367 327 307 297 311 351 355 351 339 330 333
316 378 457 410 378 356 333 322 316 332 328 331 382 382 398 388 396 406 405 391 370 373 412 348 353 364 349 310 304 309 367 347 354 342 331 329 331 341
393 468 408 374 348 330 319 316 324 329 330 378 382 399 387 399 410 414 411 376 361 397 343 368 350 313 300 301 328 321 354 352 348 323 329 335 327 332
486 402 373 347 326 317 321 326 327 328 377 390 404 389 405 425 437 429 405 357 374 350 356 325 305 299 308 366 335 357 354 343 325 330 323 310 309 316
411 373 344 322 309 321 324 320 322 370 394 402 393 417 447 456 456 445 373 383 352 346 312 303 300 332 312 354 365 354 332 364 323 306 304 304 300 309
371 343 321 308 322 317 315 315 355 392 413 397 423 472 482 490 486 419 387 363 323 304 300 307 345 292 347 359 363 357 374 312 304 293 302 307 309 326

GFSNE_2pvu_pres_051.txt.gz
Presure
254 250 245 241 236 229 225 228 231 226 220 220 219 217 219 218 215 215 212 211 210 210 210 214 209 203 201 203 207 214 220 294 280 134 149 139 143 143
258 244 238 234 234 231 227 225 219 221 223 218 221 221 219 219 219 217 217 217 221 188 173 196 205 205 203 211 220 298 306 263 230 235 201 197 184 181
256 252 242 236 233 228 228 227 226 226 223 224 228 229 226 225 223 225 229 231 230 220 207 204 209 187 218 282 303 268 228 235 226 227 239 441 454 460
254 257 248 242 236 232 229 227 225 225 231 227 227 230 231 231 235 236 233 227 202 207 211 208 220 309 305 261 222 230 175 235 437 429 420 426 419 413
248 248 251 244 238 235 230 227 225 226 230 235 234 236 236 235 235 221 201 205 210 218 229 285 302 248 217 231 262 420 415 407 453 426 407 397 388 375
240 244 246 249 247 236 229 226 222 223 225 227 228 233 234 204 205 209 211 220 237 300 299 231 222 229 332 412 399 397 387 424 401 387 375 365 356 351
240 244 246 245 242 240 229 220 219 219 227 232 211 202 206 210 214 225 247 306 271 242 238 239 311 405 390 385 380 376 364 353 356 364 352 348 344 336
240 246 242 241 238 224 223 223 232 230 198 204 204 212 218 228 273 297 259 253 234 260 387 395 386 371 363 361 355 349 335 329 327 328 341 342 341 334
240 232 226 222 219 223 227 198 200 205 212 215 223 247 257 287 267 252 235 269 402 388 381 374 359 349 346 342 344 344 335 319 308 314 314 313 312 327
218 216 221 221 205 193 198 208 206 219 231 270 283 278 258 249 257 265 353 395 378 364 363 356 337 331 332 330 336 333 328 329 318 312 315 316 309 300
201 196 189 194 205 204 212 224 238 266 274 263 252 237 257 266 384 395 382 372 358 357 378 377 368 363 354 351 364 371 367 357 351 349 349 325 309 296
198 199 202 208 219 227 248 271 266 251 233 236 251 262 289 389 380 370 366 361 363 357 367 359 387 370 471 412 418 430 346 336 327 337 341 347 299 342
203 212 221 231 252 266 262 245 222 231 241 255 271 390 375 365 355 354 357 356 356 372 429 419 401 403 403 386 392 399 404 414 407 408 396 341 325 315
222 235 254 260 253 237 220 220 235 249 322 400 379 366 354 346 342 345 345 383 420 422 417 406 389 388 387 381 371 382 397 388 378 381 374 342 348 344
255 253 245 215 222 227 226 242 272 414 390 369 357 343 339 338 341 337 392 404 411 410 414 407 387 377 387 375 367 375 376 372 359 355 354 356 334 320
233 216 213 222 221 246 316 440 407 382 361 345 335 336 339 336 389 394 402 399 397 402 408 405 379 369 404 374 369 361 348 357 364 343 321 319 305 315
221 187 227 269 322 369 428 399 374 353 337 336 337 336 357 396 397 404 392 400 415 414 393 381 374 416 366 361 359 370 370 336 315 308 301 343 377 347
231 254 316 326 474 419 391 365 347 334 331 338 333 394 411 405 395 399 410 420 429 403 369 372 394 352 353 368 358 329 314 307 330 360 358 342 343 326
306 331 332 472 418 388 356 337 324 334 331 376 413 418 412 423 437 445 454 453 407 366 396 345 356 360 340 315 309 303 367 349 357 350 327 337 323 316
333 372 466 414 383 347 331 315 331 329 383 435 412 441 471 494 486 481 469 401 383 346 352 348 325 306 300 319 369 317 354 354 336 340 323 309 315 318
549 452 406 375 339 323 313 326 323 390 380 426 388 504 507 532 505 472 388 358 356 341 315 302 299 328 356 350 361 356 356 333 320 312 311 310 316 325
449 404 368 333 314 323 323 321 375 358 419 424 389 387 392 395 398 368 355 325 306 297 302 341 352 340 362 362 366 328 316 315 304 303 314 315 316 319
401 360 329 308 321 320 316 368 363 333 327 320 319 319 318 312 306 299 294 301 345 346 345 355 371 376 376 323 310 305 304 302 316 313 312 314 328 356

GFSNE_2pvu_pres_054.txt.gz
Presure
232 235 237 234 229 229 229 227 264 255 242 234 235 235 240 240 238 233 230 232 230 230 233 236 237 240 241 238 236 237 242 242 236 236 223 208 206 216
228 234 237 230 227 233 223 233 262 261 255 247 240 238 237 236 232 231 231 231 229 233 238 239 240 242 245 247 246 243 239 222 202 209 216 216 189 227
227 232 232 227 222 224 230 226 235 249 250 254 253 248 238 236 234 232 233 232 232 236 240 241 242 243 140 234 209 207 212 217 221 226 274 271 285 281
226 235 229 224 216 223 228 250 248 246 251 256 256 253 251 246 241 236 234 230 230 227 230 240 235 204 207 207 167 224 240 289 277 270 266 260 251 251
230 230 223 227 218 221 237 250 243 247 253 257 253 249 244 242 239 231 226 226 237 235 213 207 211 221 244 310 284 264 257 258 282 297 289 407 413 450
184 221 216 222 221 235 245 249 251 252 244 238 236 232 229 230 235 230 214 207 207 216 222 265 299 278 256 254 262 315 410 407 405 392 381 385 384 415
221 217 213 217 233 242 246 250 226 225 226 228 224 222 214 203 203 209 210 218 277 290 269 245 249 245 281 411 404 395 391 386 377 369 352 350 357 363
212 215 215 237 242 251 221 223 222 219 217 206 195 208 207 210 260 292 282 253 246 244 259 274 415 399 388 382 377 375 374 366 350 338 343 335 335 335
216 231 243 250 221 221 218 209 200 197 207 213 227 256 280 277 260 250 239 236 264 296 404 398 382 371 367 360 360 373 381 380 355 331 320 319 326 327
243 248 224 218 207 198 194 200 205 223 239 266 277 260 245 241 238 245 267 354 397 387 381 381 366 360 355 353 358 376 377 376 368 364 364 337 317 318
215 214 193 190 200 201 206 233 243 264 261 247 240 236 234 249 270 411 401 387 374 365 357 366 356 354 407 417 426 434 437 468 434 427 350 349 359 359
188 183 198 204 214 236 244 267 253 235 229 232 242 245 270 417 402 386 380 368 358 349 348 358 419 422 430 396 398 412 422 426 423 415 417 410 348 351
201 207 228 237 243 260 246 230 226 232 234 246 291 374 407 384 373 367 357 350 351 362 411 420 427 410 423 409 384 386 399 409 395 382 388 396 401 358
227 235 241 248 235 225 224 229 232 249 290 343 416 392 377 365 354 344 346 361 397 412 414 419 409 417 417 402 389 379 397 398 364 380 385 393 394 404
239 244 222 218 226 225 235 258 295 331 397 400 378 367 354 341 335 362 395 415 415 411 413 417 433 416 402 390 374 374 378 368 369 370 375 375 375 369
217 212 226 225 239 275 301 340 343 417 387 374 358 339 329 385 420 435 424 424 427 425 430 443 424 385 379 390 415 393 364 357 350 353 373 371 365 357
217 224 243 292 302 322 343 389 406 389 370 347 331 391 447 427 461 482 500 494 481 465 442 410 397 389 354 355 357 358 359 379 355 336 329 324 313 310
199 297 309 335 335 436 424 391 380 355 332 381 444 420 390 533 550 540 521 499 479 401 392 352 354 358 357 352 347 335 325 319 311 304 317 356 378 368
313 348 333 525 458 410 382 363 341 321 406 379 438 334 390 387 404 401 385 373 358 356 350 341 328 317 312 308 310 316 383 365 368 367 347 341 337 335
395 549 504 439 394 369 347 328 337 382 331 322 319 318 320 321 330 337 336 328 319 312 308 306 316 349 355 362 355 364 375 368 337 323 315 307 312 314
463 368 424 381 356 334 314 332 378 326 312 305 304 305 302 300 300 300 302 321 330 350 352 357 327 368 374 353 327 321 318 314 309 313 314 313 312 313
351 406 367 343 318 324 327 366 331 313 301 297 294 297 300 337 348 349 350 348 354 359 367 335 319 316 311 306 299 298 312 308 308 308 322 322 326 311
387 353 326 316 327 324 319 272 317 303 294 290 347 349 347 338 331 339 345 345 351 314 313 305 303 299 308 308 304 305 305 302 319 310 302 310 306 298

GFSNE_2pvu_pres_057.txt.gz
Presure
247 241 234 228 207 212 225 227 233 228 232 226 224 221 229 229 238 242 247 253 258 263 267 261 254 252 248 242 239 237 232 230 229 231 237 236 245 245
238 234 225 228 224 222 231 232 231 228 225 223 222 223 218 228 241 251 251 249 253 257 259 261 260 257 254 250 246 243 242 240 238 237 240 241 246 249
217 217 215 213 224 236 237 235 229 229 227 225 227 220 219 238 245 249 253 256 257 259 257 253 248 244 242 240 236 234 235 234 241 247 248 239 233 225
211 208 231 237 238 240 221 228 229 227 226 222 229 226 243 252 254 256 236 231 229 230 230 229 230 233 233 233 232 229 222 208 208 218 217 212 210 244
228 220 228 235 230 211 204 210 230 225 222 233 243 254 258 240 228 224 221 220 220 223 221 212 206 205 202 211 213 229 234 277 274 269 266 267 266 266
181 220 226 213 208 223 226 231 224 214 227 243 259 236 223 222 222 217 206 205 197 195 206 248 269 261 256 258 256 256 261 259 251 251 246 321 400 394
211 218 198 205 219 221 226 215 223 232 249 227 217 217 212 206 201 196 214 267 270 256 249 244 251 248 248 245 277 414 411 409 404 394 386 375 367 362
224 200 211 216 221 225 215 228 242 249 220 210 200 196 201 215 217 273 252 244 241 239 247 263 282 385 414 399 390 387 386 386 380 377 371 363 361 348
218 217 222 226 224 225 238 218 210 199 194 196 212 226 258 252 244 239 240 243 255 276 307 415 411 394 381 367 361 360 363 371 395 398 392 359 353 359
222 227 228 224 232 216 200 191 193 200 219 244 252 246 235 236 241 247 261 291 344 422 405 389 376 363 353 343 337 377 427 434 453 440 435 437 442 365
222 220 230 210 193 195 199 210 230 243 243 232 183 237 239 249 266 306 324 425 407 381 364 370 352 340 347 373 409 415 426 435 435 430 408 412 450 430
227 200 189 190 204 218 232 241 235 221 224 228 239 251 262 317 330 413 412 382 376 365 341 372 379 404 430 431 414 401 401 419 432 427 399 393 405 427
191 206 215 226 236 242 226 222 225 213 232 244 256 313 340 414 410 379 373 371 405 423 436 447 446 435 433 435 416 408 421 422 426 411 396 376 381 394
214 225 233 240 217 224 217 221 229 243 252 311 358 437 412 378 369 384 441 429 483 338 404 486 487 470 449 440 433 413 415 413 390 396 372 371 373 384
235 240 206 222 214 216 227 243 256 312 355 441 416 378 373 405 465 402 416 558 307 526 515 507 474 440 416 396 378 383 393 410 371 366 370 380 381 378
199 225 214 212 222 247 263 318 355 447 419 392 367 353 350 343 365 380 377 368 404 397 385 383 379 365 359 358 356 358 358 357 357 350 352 351 369 370
215 214 200 248 310 324 452 459 401 397 381 355 332 338 328 321 321 321 325 343 354 357 363 359 357 357 354 350 357 360 360 359 357 350 346 339 330 323
217 281 318 456 551 460 364 376 389 367 334 354 331 319 312 307 306 307 306 306 308 309 310 312 314 315 311 354 354 360 328 332 326 355 359 374 386 387
318 625 579 410 372 367 394 367 347 327 370 329 315 307 305 303 304 361 361 358 362 366 364 369 376 379 369 381 384 378 384 340 333 332 326 321 319 317
571 549 467 416 402 372 339 330 342 344 329 314 307 302 345 349 345 344 346 291 363 366 332 324 319 316 312 308 302 305 311 308 309 313 315 318 316 316
356 342 341 336 321 330 339 334 312 336 314 304 300 306 349 339 337 344 360 348 319 315 311 305 302 300 300 310 311 311 310 309 310 305 309 308 315 313
338 323 349 342 330 321 331 316 358 323 306 297 291 348 335 339 340 345 316 312 300 310 310 304 299 304 316 318 311 304 303 306 307 306 299 297 312 304
325 315 307 336 321 326 324 309 364 317 303 293 298 338 333 332 354 319 301 293 305 296 293 304 305 300 299 294 286 287 288 289 294 300 305 318 347 344

GFSNE_2pvu_pres_060.txt.gz
Presure
233 230 226 224 220 210 229 250 243 239 228 221 217 231 239 238 237 236 233 232 234 225 226 227 248 256 259 260 261 259 260 257 263 262 269 264 255 255
225 226 226 226 223 247 245 239 235 226 215 220 235 239 239 230 231 234 234 231 222 223 232 265 261 253 241 234 232 234 235 236 237 240 245 251 254 255
228 228 205 226 245 242 237 230 224 215 225 226 233 229 215 226 228 239 239 232 229 261 253 239 230 230 229 225 224 224 223 224 226 228 230 232 236 241
244 227 240 240 231 227 235 217 216 231 218 228 224 213 227 230 239 228 226 249 247 231 231 229 224 221 217 213 207 202 201 203 204 206 206 206 209 216
245 256 236 226 224 223 222 221 234 216 214 217 212 219 228 236 226 235 244 219 224 223 215 208 202 210 217 269 260 251 250 249 251 251 253 257 262 267
213 211 213 225 229 223 237 238 221 223 208 212 221 227 230 227 244 231 215 204 199 201 231 249 260 251 244 244 235 250 258 269 290 292 338 336 253 253
218 205 177 200 212 216 205 202 206 223 230 225 235 229 237 235 199 196 194 221 239 256 250 232 230 245 257 269 292 337 400 431 424 414 402 394 391 387
240 249 252 245 209 212 214 206 232 231 234 235 233 232 192 195 202 224 253 252 223 220 235 244 259 271 335 420 420 415 396 388 384 380 374 370 365 360
245 254 251 243 234 235 248 244 233 231 232 223 190 198 208 225 256 257 224 229 238 250 262 274 439 424 409 391 371 370 366 365 360 363 379 396 427 452
209 241 245 244 241 235 228 227 232 200 202 205 215 226 250 238 226 228 242 253 257 290 424 416 386 385 386 381 373 374 378 383 391 410 433 455 447 426
247 241 229 227 227 225 225 185 193 207 214 228 256 223 225 228 241 250 256 275 432 400 428 427 433 431 507 430 419 418 417 425 434 449 442 438 424 423
225 224 226 223 189 186 199 207 220 250 253 208 227 229 243 249 255 273 433 397 424 407 404 398 593 568 564 495 263 454 442 443 452 455 447 443 430 416
203 191 188 199 219 236 250 239 210 212 226 227 239 245 253 326 427 393 384 363 353 344 350 390 381 431 469 489 471 467 466 458 445 410 406 397 400 392
205 250 246 236 224 216 203 216 220 228 234 242 300 405 409 395 391 365 352 341 333 319 319 330 363 381 372 373 372 369 370 380 391 382 384 399 400 395
223 215 216 212 203 212 222 222 236 306 446 438 382 409 394 365 365 341 331 323 319 322 364 313 321 324 331 345 363 371 374 370 358 360 359 363 367 366
213 212 209 213 223 221 235 452 423 393 383 410 384 357 347 354 335 323 314 368 367 370 386 393 389 372 361 375 330 323 317 322 328 334 360 366 374 382
207 208 221 224 233 309 378 433 412 399 376 350 340 367 346 330 321 309 364 364 371 353 371 348 349 346 380 364 371 378 370 384 377 379 375 348 349 327
204 222 222 237 395 367 337 333 344 334 347 340 360 338 324 314 314 358 352 369 349 331 324 318 318 321 319 318 318 320 320 320 321 320 321 321 323 330
229 216 422 387 357 345 348 351 348 341 327 352 332 320 309 303 349 354 356 329 317 309 305 309 309 312 313 320 321 319 319 315 310 312 315 315 318 324
243 333 397 362 335 323 345 335 345 325 348 333 318 308 297 346 344 352 321 305 304 312 306 306 319 319 313 294 293 295 298 294 297 299 302 299 294 316
314 355 377 344 322 314 332 336 337 313 352 268 307 299 327 336 351 333 304 295 300 302 310 308 289 283 279 283 291 287 288 288 286 298 300 301 307 322
319 387 362 330 312 296 293 337 335 308 230 316 303 292 343 339 357 303 291 297 302 305 301 288 276 278 280 288 289 289 292 294 295 325 328 334 335 351
320 390 351 321 308 301 285 332 323 305 216 314 300 290 338 344 313 292 294 296 293 287 276 274 280 282 293 294 296 305 312 317 319 314 248 321 331 347

GFSNE_2pvu_pres_063.txt.gz
Presure
212 202 200 200 214 218 227 237 223 232 230 228 229 227 249 243 240 237 222 236 229 237 226 216 230 229 233 231 229 233 229 227 261 255 248 243 243 242
204 214 219 216 222 221 234 187 226 220 218 215 231 244 240 239 238 231 231 228 227 229 213 220 227 234 226 217 230 253 251 243 237 233 230 229 229 229
230 201 223 227 234 233 229 223 230 235 245 234 244 242 231 231 235 227 236 223 225 218 224 233 237 228 245 249 237 226 223 219 217 215 216 217 216 217
227 228 236 235 234 224 232 233 240 232 249 255 238 197 237 239 239 245 222 226 228 239 235 242 239 250 215 203 200 190 189 193 195 196 264 213 203 203
245 237 228 225 227 232 235 235 153 233 146 211 215 218 216 222 207 209 222 240 245 231 227 196 219 214 229 228 241 253 229 229 234 234 234 245 247 239
175 134 122 122 193 186 254 239 229 222 237 217 220 229 227 225 235 232 240 245 234 214 225 207 237 242 248 241 225 222 251 269 272 280 288 380 396 444
259 257 247 242 230 231 175 243 236 240 248 247 257 249 249 241 245 248 236 231 208 218 237 222 241 241 237 253 263 273 277 298 421 432 427 423 423 420
255 265 264 231 230 215 238 238 260 246 258 252 255 257 248 238 226 243 216 224 233 230 267 226 237 249 257 270 282 423 464 460 447 432 417 402 391 383
237 245 247 242 242 244 240 257 250 251 247 234 234 230 213 213 218 229 240 233 234 229 243 245 256 272 282 376 375 374 414 469 489 445 429 415 405 402
263 257 252 249 253 255 255 226 229 227 228 230 225 210 220 238 249 230 218 235 243 252 273 274 344 381 371 359 346 344 404 559 537 501 474 448 422 404
269 234 224 221 223 221 224 223 219 201 212 215 250 240 228 213 225 232 243 251 269 282 360 387 375 357 344 343 331 335 392 423 500 519 501 479 464 454
219 219 211 214 211 196 195 198 240 243 234 227 222 216 232 231 242 250 282 412 412 374 378 351 341 337 327 386 400 321 373 386 389 411 405 424 421 420
205 192 199 204 218 224 229 230 229 225 220 228 229 231 244 251 348 423 399 384 370 354 350 332 382 385 392 387 393 403 331 371 375 371 373 372 376 393
216 224 226 227 228 227 219 218 225 225 224 224 238 252 364 402 385 367 367 366 350 334 356 384 391 398 406 390 390 384 387 322 334 341 359 376 360 364
226 224 223 221 209 212 215 228 228 233 236 255 363 345 332 360 377 360 345 333 342 388 394 347 343 338 342 334 337 344 344 362 389 374 321 326 330 341
221 224 219 198 205 219 234 228 235 271 361 347 359 361 386 366 348 333 320 368 371 356 343 328 323 317 314 328 339 324 322 320 328 325 328 332 341 374
213 198 192 211 186 235 225 293 367 349 335 348 350 377 355 338 327 315 360 371 343 321 318 322 321 325 329 325 316 317 321 317 312 314 316 315 321 330
215 210 220 200 227 263 393 360 339 327 321 349 335 353 334 323 313 347 363 341 317 312 311 309 317 307 299 293 293 300 293 292 291 294 302 304 300 299
218 221 215 300 328 360 374 344 323 309 296 337 329 343 323 306 314 348 342 312 306 309 308 309 286 288 284 284 288 282 289 297 297 303 310 317 323 320
217 227 303 310 323 396 356 330 312 312 293 329 324 338 293 300 346 358 307 304 305 313 305 290 281 276 273 282 297 309 305 301 294 312 309 296 317 332
281 292 299 311 336 382 343 320 303 312 324 327 314 335 307 294 343 325 303 292 301 293 276 279 278 289 291 313 306 308 289 277 293 326 319 319 277 330
295 290 278 314 332 372 334 313 295 309 321 257 309 317 299 313 348 302 297 296 301 285 286 285 302 308 293 277 286 305 306 304 293 288 266 260 300 310
313 263 311 306 394 362 328 307 293 301 326 341 236 339 293 319 349 295 296 293 276 275 285 305 292 278 279 302 290 285 279 281 285 288 287 289 284 292

GFSNE_2pvu_pres_066.txt.gz
Presure
145 199 198 192 198 198 195 177 220 209 218 226 216 224 234 238 241 231 244 246 246 244 248 244 239 238 229 229 236 223 214 213 214 219 226 228 223 214
207 206 205 207 205 205 210 222 217 218 220 221 229 229 240 242 234 239 243 244 253 261 255 214 220 225 226 231 224 222 239 252 224 243 240 236 257 251
214 214 215 216 222 190 221 219 220 225 225 222 234 242 234 229 227 246 242 237 215 207 221 228 228 218 220 219 230 230 257 237 242 245 228 217 210 211
239 238 233 229 229 229 227 228 227 230 235 237 237 229 228 253 246 244 255 243 242 241 239 242 245 256 258 254 257 237 194 211 217 208 232 240 250 241
239 234 239 238 235 239 243 244 237 233 124 128 229 222 251 249 241 238 242 237 235 255 260 264 263 259 245 242 236 216 222 248 233 240 229 234 228 233
258 262 258 243 239 237 237 228 223 232 238 258 252 221 244 237 239 240 243 253 253 254 245 237 235 226 224 240 246 214 230 237 236 240 261 282 294 305
251 253 243 243 243 239 247 250 265 259 251 246 245 240 238 241 248 263 257 240 232 235 225 212 246 259 218 223 234 229 247 260 279 292 318 376 397 389
285 254 253 251 251 236 256 259 253 253 258 248 247 243 246 259 237 233 226 203 210 240 246 219 218 220 234 238 258 271 286 304 394 384 378 377 362 357
307 286 292 242 250 243 245 252 252 258 267 246 275 266 231 220 205 218 245 241 233 229 218 221 227 198 257 272 305 397 390 375 365 352 351 349 361 454
276 264 255 256 269 268 279 253 232 229 228 225 218 205 222 234 234 234 227 233 218 225 239 247 260 271 392 390 378 367 363 396 422 396 392 353 390 422
275 253 242 233 230 229 227 223 219 215 198 224 230 235 235 233 230 238 218 228 237 250 261 388 391 378 357 355 357 400 434 436 430 418 365 330 388 390
227 224 221 218 214 214 218 196 229 229 232 232 192 230 221 237 223 228 243 251 266 360 354 365 356 349 338 387 406 370 355 374 388 408 362 336 361 390
211 195 201 220 224 227 227 228 228 229 223 230 226 233 230 234 244 256 351 372 390 372 359 342 333 352 387 347 339 342 329 335 338 347 377 391 350 326
228 231 232 231 230 228 226 226 220 233 227 222 233 239 243 318 360 358 384 371 356 342 333 358 377 350 331 320 320 337 338 335 330 329 333 334 335 342
238 234 230 229 227 218 233 230 224 231 227 232 262 366 353 342 352 368 354 339 334 329 387 353 328 324 319 306 312 331 312 316 315 311 311 309 318 326
235 233 232 232 233 230 214 220 222 240 371 378 357 341 329 311 358 343 329 322 358 375 339 318 317 318 324 324 303 294 290 298 299 295 300 307 310 302
225 199 221 217 217 178 227 271 323 323 383 353 334 319 312 319 357 332 317 334 365 327 321 320 313 310 294 291 288 285 290 299 282 285 302 307 318 328
233 228 222 222 126 290 313 283 313 341 364 334 318 308 340 297 345 322 307 357 325 314 302 306 312 291 297 285 283 287 307 310 320 309 316 317 314 328
219 214 224 286 309 304 271 311 318 393 351 319 304 303 321 316 334 307 327 354 312 303 311 294 278 278 280 292 315 308 324 294 307 326 309 295 280 310
219 230 272 303 286 268 288 319 313 380 340 309 293 302 274 314 330 302 337 310 299 303 294 282 274 289 310 301 292 315 312 292 282 295 291 288 278 274
230 265 293 288 271 270 273 323 371 367 329 305 288 290 325 323 328 299 345 303 294 290 278 288 303 296 297 304 287 282 275 275 276 275 263 284 283 288
267 295 287 263 271 261 286 315 400 354 319 300 283 309 339 326 324 302 350 300 302 278 284 301 280 273 260 263 268 270 284 281 276 278 268 267 275 264
290 293 255 264 254 267 297 315 393 346 312 296 282 251 263 329 307 317 314 302 284 281 290 278 267 284 279 274 265 282 281 268 253 230 275 279 277 286

GFSNE_2pvu_pres_069.txt.gz
Presure
216 140 211 210 207 202 203 205 201 198 200 203 206 212 224 208 219 219 220 223 231 235 257 240 232 250 255 256 258 244 218 215 212 215 218 228 222 215
217 217 216 212 211 206 201 202 199 198 214 216 223 165 222 222 218 225 230 233 241 242 230 222 243 263 243 248 258 243 243 240 238 243 246 209 213 228
248 246 243 236 237 229 230 224 225 221 220 223 222 215 216 204 230 229 135 250 238 230 245 240 263 247 236 240 243 238 251 261 265 264 263 260 262 257
256 255 250 242 239 239 236 231 233 231 226 226 224 173 233 239 246 228 128 136 231 235 244 244 240 242 233 244 247 257 253 249 246 239 235 230 232 234
278 277 275 271 263 256 249 241 244 240 239 239 234 240 246 248 235 219 245 253 248 248 261 255 246 234 242 260 254 233 234 237 202 228 256 250 244 231
275 266 257 240 235 254 254 251 251 247 243 244 241 244 243 243 235 242 252 254 253 256 245 241 253 247 227 217 226 241 214 232 223 218 217 218 226 237
391 374 325 299 258 249 245 230 233 242 228 233 249 250 257 252 253 248 246 240 259 273 261 225 228 230 240 232 229 221 221 227 228 226 256 267 286 309
327 320 322 317 301 288 288 302 246 245 251 234 243 247 247 262 262 254 253 253 235 220 228 246 238 236 228 216 231 229 248 256 268 275 293 405 387 385
289 278 304 292 285 288 286 287 279 277 271 237 261 261 248 238 234 228 216 218 237 243 223 234 235 238 237 245 256 267 279 318 395 378 387 430 434 438
263 271 273 274 277 276 275 267 260 250 244 241 232 230 219 212 218 235 247 229 235 229 233 234 243 248 258 274 339 389 393 372 401 394 376 382 406 424
231 233 238 238 239 240 236 235 232 214 209 205 231 239 241 242 238 241 247 231 234 238 246 257 275 352 371 379 373 373 355 374 349 344 339 339 346 356
200 239 238 238 235 234 236 237 237 235 238 238 234 236 238 248 246 188 234 243 261 284 369 363 372 367 350 354 356 408 354 353 341 340 335 336 336 343
227 231 239 237 235 236 236 236 236 234 234 233 224 222 226 228 239 273 380 366 353 358 372 351 338 336 339 388 346 342 334 340 337 336 324 312 308 311
219 223 218 225 227 227 227 228 229 226 220 186 225 232 292 347 393 365 347 329 330 356 342 332 330 369 361 331 317 317 336 311 299 294 296 300 292 295
220 215 223 224 224 230 233 227 159 222 234 318 293 282 344 387 357 337 325 315 358 341 329 359 366 337 322 313 306 315 298 300 302 304 308 293 296 282
225 227 227 235 234 229 210 220 232 310 315 274 281 341 398 362 335 321 306 360 343 328 330 342 321 316 305 313 294 288 292 284 290 298 311 318 322 337
225 227 234 236 228 218 229 239 311 269 274 274 299 359 377 337 319 312 295 336 329 314 361 320 306 309 314 292 278 281 275 298 326 326 319 308 297 299
237 236 229 207 230 233 243 313 261 269 288 280 319 394 354 322 306 301 282 354 319 327 328 301 310 304 291 288 281 296 304 317 311 296 292 288 282 283
228 231 230 232 237 301 313 258 260 264 279 290 323 383 337 316 299 290 335 354 311 351 310 282 288 285 281 305 310 296 305 295 290 286 286 283 286 295
228 229 232 244 307 305 255 257 255 271 274 306 340 376 329 310 290 288 338 345 305 349 306 297 280 280 299 293 302 285 285 260 266 271 272 279 279 283
230 234 246 317 310 255 250 273 263 277 282 314 376 365 324 305 285 284 326 346 311 332 305 290 287 285 278 282 275 284 297 277 260 255 269 266 275 275
233 250 326 297 245 241 262 261 268 275 301 316 398 351 319 296 299 234 347 347 321 306 300 278 302 281 272 276 272 266 289 249 269 272 261 260 273 274
237 317 277 245 240 242 289 265 272 294 322 331 384 336 312 288 317 276 333 315 330 310 286 294 282 272 287 272 286 269 265 268 267 276 267 270 265 264

GFSNE_2pvu_pres_072.txt.gz
Presure
236 230 227 220 221 220 215 215 210 212 204 203 201 203 205 203 207 134 129 126 219 227 147 181 225 226 234 242 238 241 135 250 240 250 237 241 251 235
284 280 280 270 264 256 250 241 230 226 223 220 223 216 215 213 215 217 219 220 208 203 221 211 226 232 228 237 260 248 245 247 257 242 231 246 241 243
296 287 278 274 267 263 254 251 247 245 241 244 236 224 229 228 224 219 221 218 224 225 226 230 123 123 129 131 141 255 254 249 249 241 232 233 242 254
302 295 286 272 267 287 272 264 259 254 242 236 239 239 232 236 240 238 237 237 230 247 259 254 254 257 245 255 254 261 247 243 240 238 244 261 259 256
390 373 365 342 340 305 260 248 268 261 243 247 236 246 251 234 252 246 250 250 243 234 243 246 266 269 257 259 262 261 262 258 231 216 235 232 233 237
338 419 390 366 343 331 305 303 285 249 237 235 237 233 230 235 237 233 229 239 255 251 251 247 243 249 268 263 257 235 234 240 236 231 227 227 229 232
308 307 346 330 320 343 346 328 314 287 272 264 260 257 247 246 262 254 253 248 251 264 257 261 264 252 231 237 242 236 221 219 217 217 221 226 228 220
252 267 278 296 298 296 292 293 293 298 284 276 276 279 279 278 279 280 274 268 262 258 252 236 242 243 252 248 220 215 229 229 234 243 252 266 277 284
209 211 236 245 254 255 253 254 255 261 262 265 258 254 253 252 252 253 251 242 235 243 248 242 226 255 247 245 248 253 263 271 312 321 390 380 376 394
243 245 242 245 227 217 246 217 218 221 223 221 225 223 235 235 238 244 248 247 234 234 237 240 242 250 259 270 309 382 392 387 377 362 360 379 374 359
242 238 241 237 233 232 235 236 236 237 236 236 235 237 236 234 234 229 224 228 238 244 260 276 375 373 321 378 373 373 363 349 388 368 354 349 337 338
236 236 233 229 225 221 223 231 231 230 232 233 234 217 215 215 216 229 241 268 314 299 292 288 360 350 350 354 359 352 407 362 343 342 326 324 334 331
236 235 232 231 233 232 231 229 229 236 237 232 213 221 226 241 301 334 293 276 319 379 358 337 332 354 344 335 353 374 342 334 333 347 321 309 303 294
230 231 230 230 230 234 238 240 233 230 233 237 238 243 305 332 267 260 281 406 374 349 333 324 354 335 328 359 347 333 320 332 307 303 301 298 291 285
216 215 218 237 235 238 240 235 236 235 241 257 309 337 283 251 268 297 396 377 348 327 314 338 340 320 354 337 315 312 314 303 300 286 293 338 333 331
213 220 216 224 226 220 225 239 240 254 316 316 315 249 285 256 289 329 399 354 326 310 309 371 323 340 327 313 307 310 289 287 289 285 319 307 295 298
216 216 221 225 221 227 235 248 294 331 309 249 243 279 261 281 315 332 391 342 312 297 332 362 311 336 310 309 303 288 276 279 301 312 291 290 283 279
215 216 222 225 227 231 248 258 306 264 239 238 294 267 271 291 326 331 383 332 305 293 347 354 327 314 304 297 289 287 305 299 303 284 285 281 278 275
217 228 234 226 244 242 247 347 274 241 239 247 287 270 279 304 322 331 369 326 298 305 351 337 331 299 297 290 317 295 287 303 280 263 262 264 269 268
227 231 225 232 234 248 294 302 262 243 243 298 269 274 287 320 328 369 356 321 292 294 349 316 331 302 284 279 294 291 262 276 290 276 267 274 267 274
230 222 233 232 250 258 319 279 254 253 289 269 270 293 330 337 361 373 337 296 302 284 342 317 335 292 279 295 274 280 283 289 271 259 274 264 281 268
221 230 234 246 255 340 286 264 261 284 283 267 330 356 376 413 383 348 327 293 320 308 350 326 318 291 301 279 286 273 273 265 268 270 267 260 265 266
230 235 242 251 330 275 256 290 291 291 274 367 375 449 431 396 358 328 295 249 256 328 322 335 310 296 292 288 276 271 262 263 264 273 264 254 250 243

GFSNE_2pvu_pres_075.txt.gz
Presure
249 297 290 304 289 287 274 274 273 268 257 248 241 241 241 236 230 226 220 218 218 219 218 228 217 207 212 220 210 215 222 228 222 236 235 251 252 232
283 287 280 376 376 396 345 343 306 264 260 256 251 246 243 237 237 230 231 224 221 219 219 223 220 221 220 216 223 228 228 232 229 168 230 253 259 249
282 292 251 251 354 393 376 352 376 303 287 254 232 235 238 237 235 237 232 230 219 219 222 223 228 228 226 226 225 240 253 238 206 251 248 266 260 253
256 245 236 224 227 420 362 351 377 351 350 286 283 252 244 225 232 236 230 230 233 234 232 233 228 230 229 202 229 225 231 247 259 244 244 245 265 263
241 225 216 255 252 235 404 357 364 345 323 329 312 274 268 253 242 224 229 247 234 234 238 239 220 228 227 238 242 252 265 251 263 260 251 268 246 232
226 224 229 218 259 248 221 334 343 350 322 303 295 310 301 278 266 259 248 244 241 231 236 244 256 262 269 274 284 281 271 282 279 249 242 240 241 240
223 234 220 251 254 251 265 226 275 276 283 294 305 313 303 293 284 284 288 290 295 293 290 285 283 288 292 285 281 267 252 245 235 234 234 233 234 246
206 219 255 254 253 247 245 246 250 253 260 249 240 243 251 254 254 254 255 256 256 255 256 244 247 254 249 241 232 232 236 239 238 240 236 237 238 235
229 242 250 246 249 249 243 242 246 240 240 237 235 235 241 236 233 239 240 239 241 238 233 241 235 233 235 245 253 261 274 283 297 311 328 322 354 380
214 247 239 232 244 247 250 245 242 241 241 238 237 236 235 232 228 227 226 226 227 224 228 233 243 250 261 313 331 316 302 344 375 369 361 359 358 356
211 205 222 220 225 227 228 234 238 240 239 236 238 232 230 230 229 227 226 226 231 237 240 339 318 287 271 295 375 373 369 368 350 347 392 382 367 358
211 206 212 217 218 218 227 221 230 227 227 224 233 238 243 243 260 274 313 316 333 320 282 264 270 290 360 353 352 342 365 340 386 351 341 339 329 326
204 204 215 217 215 224 224 225 228 229 226 230 232 243 276 335 328 320 297 254 254 272 280 268 391 357 335 322 332 361 339 360 335 324 315 322 324 311
207 211 224 223 217 222 227 225 232 231 235 235 241 252 332 275 248 242 242 257 285 266 277 348 364 327 314 307 348 339 376 330 310 320 308 301 295 282
210 215 216 227 224 238 226 231 241 229 235 244 248 308 295 271 253 238 245 288 264 278 318 346 354 308 295 340 331 325 320 316 318 303 293 295 315 320
212 211 215 218 236 220 222 243 227 238 237 255 306 303 283 252 240 252 297 271 270 292 336 360 352 296 289 347 319 338 311 302 302 289 287 324 303 298
216 224 216 218 218 239 239 231 235 237 255 339 307 283 269 260 275 293 271 269 301 327 336 394 343 287 350 327 347 314 299 289 286 294 306 295 283 282
226 204 217 238 232 234 231 239 235 244 269 295 261 268 296 296 294 266 277 330 333 336 341 373 321 302 356 323 325 303 284 280 296 303 288 286 279 264
245 247 236 228 234 232 237 238 240 256 306 269 272 301 285 298 266 312 350 360 367 360 378 349 291 327 359 323 331 279 278 293 293 305 272 266 264 272
232 223 234 240 237 237 255 241 249 267 302 268 293 288 263 274 367 365 357 410 376 374 351 311 315 327 322 328 320 285 290 289 265 283 296 275 266 264
238 241 239 237 244 259 243 248 262 320 276 277 279 274 277 383 379 449 435 413 377 348 322 298 323 353 324 316 303 301 289 269 273 285 258 263 271 261
254 255 251 258 275 249 247 262 281 301 259 280 308 277 388 511 485 443 416 376 350 325 300 255 314 360 337 305 284 302 278 279 251 267 262 257 267 258
267 252 240 255 239 251 266 282 316 258 292 288 275 341 518 488 449 416 374 346 320 300 235 353 340 323 329 307 292 301 283 263 263 265 262 248 243 245

GFSNE_2pvu_pres_078.txt.gz
Presure
261 258 249 242 246 277 282 266 252 265 243 291 364 320 289 270 259 239 229 233 237 233 221 216 211 210 205 207 211 211 215 219 220 221 217 215 225 219
250 190 240 254 261 268 254 252 250 224 234 409 381 341 306 289 264 253 246 231 224 227 233 226 224 223 218 218 218 217 219 221 216 215 213 223 220 222
242 239 261 275 267 257 251 247 243 273 284 389 258 354 332 313 282 274 257 251 238 227 223 232 236 232 231 227 221 225 224 216 224 228 232 229 237 232
238 257 278 270 262 258 246 235 229 268 265 275 387 369 396 365 304 289 279 263 252 243 232 225 225 229 233 228 230 230 226 234 236 235 242 219 224 225
246 281 269 260 257 247 228 229 262 268 258 251 265 331 338 338 343 313 288 286 264 258 254 244 233 232 230 232 221 219 221 226 224 232 230 247 246 259
280 264 267 247 249 228 240 258 255 257 261 253 268 255 250 252 253 293 331 331 339 343 310 296 265 261 257 256 250 253 256 261 269 293 289 293 310 302
264 258 249 255 237 240 224 232 224 226 237 242 251 256 260 255 245 232 246 244 243 240 246 254 265 273 281 283 281 279 270 263 251 246 248 247 250 250
265 256 239 241 216 240 214 212 206 230 227 225 232 234 238 238 240 241 236 237 236 234 228 227 231 244 247 244 243 240 237 234 233 223 227 239 242 240
253 233 247 218 228 233 218 210 206 227 222 225 226 231 237 231 224 234 236 240 242 245 251 250 247 247 248 247 248 252 266 276 293 295 324 304 284 292
233 246 231 224 240 230 217 210 216 228 225 220 228 235 247 237 239 236 245 247 251 327 326 327 334 334 337 345 335 295 294 285 281 283 373 370 365 361
280 230 226 225 239 230 220 212 217 222 232 230 228 244 242 234 241 239 249 256 340 302 270 252 247 250 250 293 311 296 280 370 357 345 339 349 347 378
225 218 235 237 249 230 217 213 218 221 223 243 233 244 231 236 239 250 351 350 301 288 258 253 252 244 289 294 281 285 388 354 325 361 337 369 350 348
219 232 234 239 239 233 219 221 220 224 220 219 247 237 234 241 240 325 271 262 274 267 253 246 263 294 285 267 277 363 365 334 322 335 346 328 328 315
232 241 233 235 246 228 218 225 234 243 247 243 243 238 242 238 254 305 268 263 294 297 296 298 291 274 267 281 326 360 347 314 365 336 323 312 310 307
231 235 257 249 236 200 222 209 257 248 234 246 234 244 237 245 297 298 266 285 308 294 300 272 269 278 334 332 330 364 327 300 345 322 309 311 300 281
237 242 243 236 202 233 235 252 236 244 246 243 239 248 246 276 313 268 278 278 291 269 279 286 346 342 339 349 343 350 309 341 335 316 312 298 283 293
256 244 232 236 254 249 242 246 243 252 254 267 264 243 284 320 269 289 287 303 276 283 317 370 371 344 349 351 364 319 289 345 310 306 299 287 320 301
238 234 248 245 228 236 235 261 265 249 266 244 268 336 286 262 297 289 302 276 299 380 369 359 355 364 363 369 326 294 356 331 307 298 289 299 301 281
244 242 236 231 226 227 250 258 252 271 255 242 280 251 265 286 299 294 284 402 439 440 420 411 382 378 356 321 308 326 323 316 293 287 299 295 302 293
220 233 227 229 226 228 261 265 276 252 242 273 274 260 291 284 307 281 494 494 474 457 424 403 378 352 313 295 306 378 317 305 286 293 279 268 275 283
229 226 228 228 236 233 268 281 279 241 258 269 264 274 299 294 277 346 520 494 455 420 390 367 342 312 301 281 348 338 297 286 282 292 275 285 291 259
221 221 219 235 237 254 274 281 238 248 261 280 253 285 291 302 282 383 339 320 348 340 329 310 306 254 317 331 343 328 287 277 288 285 279 283 265 268
224 224 223 235 245 263 281 276 251 260 266 279 276 286 293 314 290 371 348 311 345 339 338 345 229 302 312 354 317 332 302 301 288 276 275 268 265 254

GFSNE_2pvu_pres_081.txt.gz
Presure
186 188 197 198 262 251 238 244 263 283 270 262 253 242 260 276 295 285 376 323 288 282 270 251 241 228 237 220 218 220 218 215 219 216 215 211 200 215
192 194 203 253 246 244 240 260 269 274 260 254 240 253 249 267 288 335 342 311 295 288 266 255 231 231 241 213 211 227 214 217 219 221 211 217 215 211
215 229 252 243 230 236 238 278 267 263 259 245 232 236 219 215 286 272 321 290 290 314 286 269 244 243 239 224 227 223 226 219 203 216 207 218 225 223
244 253 243 241 233 240 282 269 263 254 256 233 234 219 206 232 225 252 263 246 342 306 288 299 256 257 257 244 241 231 238 239 236 230 218 218 217 219
252 240 236 236 239 278 271 261 262 249 243 225 234 213 211 217 225 239 248 241 240 254 256 302 304 283 256 252 253 249 244 238 242 241 243 242 243 238
237 230 235 237 272 268 261 261 253 249 228 234 225 218 206 227 232 226 245 262 250 235 229 227 246 243 255 296 321 293 274 272 269 264 267 260 260 261
228 231 238 269 264 257 262 254 236 246 218 240 231 222 217 225 237 235 228 254 241 236 238 243 241 238 244 235 236 238 242 244 254 263 265 264 266 269
233 243 266 264 244 263 252 242 258 220 228 246 231 226 218 224 231 236 226 241 240 240 242 243 247 257 263 255 256 281 288 283 277 236 236 233 233 233
246 266 256 249 263 252 283 260 219 236 242 247 235 230 228 232 228 226 243 249 249 245 243 242 362 353 348 350 337 293 282 324 320 322 267 264 267 274
266 247 261 263 252 265 227 226 232 241 239 237 241 223 227 239 250 248 251 249 248 245 247 252 293 282 275 289 287 278 263 247 248 247 245 286 298 285
244 282 263 251 254 228 222 224 242 238 237 244 234 215 226 252 246 240 250 238 267 252 252 310 298 273 277 302 300 294 279 273 285 298 299 276 277 355
276 257 251 245 225 215 221 234 237 257 246 199 216 243 251 247 262 251 263 285 262 257 321 297 275 278 285 281 300 298 298 294 279 272 280 374 338 327
253 249 235 212 215 222 232 238 256 249 238 243 253 247 261 258 263 256 267 249 326 291 272 271 292 294 286 293 300 286 281 285 302 357 357 362 321 332
241 214 218 220 227 236 239 254 244 241 248 238 234 245 274 258 260 269 245 280 266 272 296 289 292 298 285 271 275 288 299 349 365 351 359 323 330 335
221 216 218 219 228 238 248 240 243 231 222 233 234 251 269 272 289 242 292 268 287 307 294 310 280 282 301 321 345 342 350 358 356 366 374 308 337 329
211 223 220 242 252 243 241 242 218 229 237 233 236 276 283 274 243 266 282 269 308 301 305 285 345 378 380 370 359 361 351 340 352 375 313 353 331 307
210 224 222 222 245 241 230 218 234 236 229 237 250 278 283 243 248 283 267 294 297 295 309 388 483 457 424 399 386 380 360 363 372 340 310 339 324 298
228 216 208 224 234 224 241 232 232 226 227 237 286 285 265 251 266 291 278 301 323 296 375 329 477 444 418 396 386 371 367 358 329 297 353 321 312 282
244 220 237 229 224 233 231 208 230 224 231 240 286 289 243 259 281 277 294 301 306 309 363 327 470 428 405 382 371 367 332 308 300 356 339 314 293 306
225 225 229 233 232 220 216 229 230 227 240 267 287 262 250 268 278 275 309 309 302 310 358 338 335 309 340 338 329 301 297 250 358 342 320 288 306 306
232 238 232 222 210 225 230 233 226 234 259 278 283 251 259 275 285 289 324 304 303 304 357 335 358 351 343 325 238 337 373 367 327 339 307 298 290 282
234 226 216 209 226 224 232 226 240 247 264 279 276 253 270 282 276 302 328 307 312 290 314 355 327 315 354 239 337 331 336 365 326 319 286 298 283 284
214 220 217 225 222 223 223 230 246 259 271 277 250 260 277 280 285 303 318 317 300 280 311 306 344 320 325 220 286 323 356 334 304 296 291 294 283 289

GFSNE_2pvu_pres_084.txt.gz
Presure
184 176 178 183 186 191 172 202 230 253 248 244 244 287 274 265 257 241 241 225 223 222 233 242 307 301 294 285 265 251 246 230 226 219 230 221 216 220
178 183 188 197 191 193 241 245 252 247 242 239 283 273 270 259 249 231 241 223 217 232 241 242 261 242 299 284 273 256 244 239 218 234 215 215 214 221
185 193 190 190 223 253 238 248 244 242 237 276 269 276 267 247 241 224 242 219 217 223 239 230 249 244 261 306 282 284 256 240 243 246 230 227 234 227
199 231 231 210 258 238 194 244 235 240 238 276 273 271 250 253 231 226 243 227 219 222 236 230 220 250 240 247 246 292 279 262 243 246 230 225 228 229
245 239 147 247 249 243 244 236 234 239 276 260 273 281 268 241 229 236 243 232 223 225 238 227 230 242 252 242 238 232 241 315 268 264 243 243 238 241
264 253 241 244 240 245 236 230 234 274 263 278 286 263 236 227 234 253 242 243 228 233 248 246 247 254 253 243 241 250 243 239 237 262 266 242 259 263
247 242 240 237 242 230 229 235 267 262 275 266 253 230 222 235 245 248 250 238 222 235 246 248 236 239 252 252 253 246 245 268 290 279 270 243 240 248
243 245 237 231 231 227 241 256 257 278 262 259 233 220 230 242 248 256 246 222 246 252 240 250 266 270 293 292 269 256 258 291 273 346 336 311 286 272
240 240 231 226 230 243 258 256 274 260 257 233 216 231 241 254 242 242 246 253 241 274 271 271 273 270 252 341 335 324 308 296 277 272 276 290 291 285
227 234 227 230 251 262 258 264 258 251 229 217 228 241 252 247 240 247 238 229 238 275 275 288 274 256 288 271 266 266 263 272 276 284 286 304 296 287
228 223 237 253 263 267 266 256 245 218 228 229 242 256 246 248 240 234 234 246 255 289 284 258 259 295 281 255 303 305 293 296 304 294 287 288 291 294
230 247 246 260 253 258 256 235 217 218 227 239 248 244 247 234 231 246 245 247 284 290 271 250 274 288 298 305 306 310 310 302 298 293 287 276 273 278
240 258 248 253 250 246 217 222 216 230 254 250 232 241 229 231 229 237 247 286 296 276 253 260 289 297 305 315 305 298 321 335 329 316 308 305 308 310
254 246 247 250 240 219 212 212 232 230 212 248 235 227 235 220 227 233 247 292 288 257 258 298 281 312 318 295 361 374 349 338 351 366 364 359 357 364
236 231 242 251 219 239 211 231 228 215 243 228 228 233 215 223 240 239 243 290 267 256 281 290 327 324 304 388 366 315 444 421 411 396 381 364 364 345
237 239 234 215 218 213 220 228 243 236 228 236 229 216 228 239 236 242 289 274 253 267 299 316 331 315 283 367 342 470 451 421 395 382 371 365 360 375
235 238 225 215 212 215 217 220 234 227 233 229 217 229 237 230 232 264 282 259 263 287 311 345 328 305 321 358 344 418 417 397 379 368 361 364 372 321
240 236 243 237 202 226 223 230 229 231 223 215 227 226 227 238 249 284 271 258 265 295 303 335 327 300 316 349 351 333 346 370 363 361 352 341 313 351
238 236 237 203 226 230 227 232 229 217 217 228 227 220 229 239 250 278 257 266 289 309 329 333 311 300 309 351 338 358 344 288 283 311 315 294 329 356
233 219 223 233 235 237 230 228 214 224 222 227 228 229 233 245 283 268 263 284 305 310 341 325 309 313 293 311 342 329 249 241 212 330 365 369 362 336
232 234 243 249 235 227 220 216 221 224 228 227 228 231 244 268 280 260 285 296 312 315 334 328 319 306 271 308 310 336 234 217 290 337 352 350 343 308
244 241 233 226 220 217 218 222 225 230 226 229 236 245 264 280 265 277 285 315 301 326 315 322 322 311 301 291 309 309 330 241 296 342 367 344 330 308
243 227 216 222 218 219 220 227 225 232 237 236 248 259 276 283 273 288 312 304 297 331 349 335 325 315 308 284 299 306 307 329 306 343 371 341 323 293

GFSNE_2pvu_pres_087.txt.gz
Presure
177 171 178 174 174 187 191 198 197 194 207 223 251 235 247 247 249 272 279 276 250 255 236 237 253 238 227 228 254 264 231 248 295 292 255 243 225 222
159 177 171 185 190 183 199 187 182 242 204 251 247 250 244 242 244 284 286 288 267 237 240 253 249 239 231 231 241 238 255 236 263 262 291 257 236 242
173 180 191 184 194 188 179 178 204 232 251 236 246 246 240 241 275 280 279 251 237 232 244 251 247 245 232 228 250 262 243 250 254 242 221 270 257 238
188 156 183 169 171 172 187 251 253 250 240 242 246 236 240 279 286 274 254 237 231 242 246 260 250 245 203 250 258 257 246 238 241 248 239 265 302 269
157 177 175 182 186 192 244 250 249 242 241 245 233 238 267 272 273 260 241 225 227 236 262 251 248 200 259 246 255 261 269 269 262 256 252 255 242 247
181 176 191 223 191 236 248 238 237 238 245 235 239 258 281 272 260 243 220 230 239 257 251 247 237 243 235 241 282 283 279 276 285 285 293 263 246 247
189 200 237 247 253 250 239 241 241 239 236 237 260 287 271 255 244 218 228 242 259 246 251 247 235 238 251 289 299 298 301 277 256 280 326 296 260 253
259 245 264 253 237 247 239 252 233 234 245 262 265 271 255 238 220 226 241 255 245 250 241 239 244 247 264 301 300 292 258 264 303 297 277 269 297 309
253 256 250 241 245 250 235 231 233 242 252 274 262 258 231 218 224 251 251 242 247 234 240 226 239 257 303 298 283 264 273 307 296 290 291 305 303 294
252 241 247 242 252 240 226 232 239 250 262 259 256 229 220 214 236 249 240 243 235 241 226 251 252 260 301 287 260 272 303 298 287 307 305 299 306 305
242 252 253 250 232 235 225 237 253 260 255 252 228 222 214 230 227 224 237 239 234 222 245 243 256 286 290 276 269 308 303 326 324 322 311 301 289 291
253 249 238 225 233 229 249 254 247 240 255 235 228 211 239 229 225 237 241 231 228 245 241 245 257 290 276 271 298 316 348 336 319 302 367 366 364 354
234 222 230 230 240 251 261 244 235 241 243 245 220 235 230 230 235 237 229 222 235 235 233 253 265 284 278 277 316 347 336 322 311 370 352 344 329 324
230 231 247 243 241 256 243 237 237 240 221 219 224 228 223 241 237 229 217 234 234 236 245 253 281 274 284 315 334 339 325 303 386 344 494 465 445 428
252 239 249 239 250 239 237 227 239 237 209 239 206 229 241 237 227 216 229 233 234 240 242 287 278 286 326 343 341 329 315 308 372 426 439 423 411 402
243 233 254 244 235 233 226 232 242 233 238 210 232 237 236 222 225 226 230 238 239 241 257 280 267 305 309 342 344 324 311 313 340 356 383 391 385 376
249 254 239 235 232 229 244 241 238 225 219 232 240 234 221 222 225 230 235 238 237 251 292 274 293 312 305 361 342 312 311 302 335 369 357 312 355 362
242 233 234 231 238 243 238 235 218 230 239 240 230 217 224 226 228 235 231 230 244 285 287 290 300 313 284 364 341 323 316 289 323 328 287 362 339 344
234 231 239 284 238 232 227 229 232 250 236 222 218 222 227 225 233 237 229 239 274 285 274 288 312 301 324 307 347 336 312 282 303 317 230 227 221 368
252 289 240 230 229 235 229 233 244 227 217 218 221 220 221 233 237 238 240 263 285 271 289 308 307 304 307 336 344 337 326 312 288 304 320 204 288 344
245 237 234 236 227 230 230 233 223 218 217 219 216 222 231 230 246 249 261 281 277 285 287 311 324 297 330 341 338 334 328 315 292 297 300 222 305 339
235 231 228 228 233 242 236 217 217 217 214 217 225 229 230 241 251 257 276 281 282 283 314 331 313 334 339 349 334 323 316 327 316 287 305 305 309 331
227 235 243 253 232 220 219 216 217 213 218 225 226 229 244 246 257 271 284 283 280 313 334 305 344 345 341 325 310 298 301 298 296 303 295 311 311 323

GFSNE_2pvu_pres_090.txt.gz
Presure
177 177 179 150 145 153 183 158 181 171 185 182 220 172 190 194 250 245 246 255 247 278 286 272 258 240 224 248 260 262 255 239 242 272 264 242 299 260
157 163 175 181 165 183 165 180 170 190 171 180 172 190 207 251 245 246 238 243 250 287 272 264 241 228 245 264 260 253 256 232 255 253 258 259 244 291
169 171 179 168 147 173 170 173 185 175 177 171 190 205 243 242 253 245 238 264 277 274 265 240 228 242 258 262 257 260 251 230 238 245 280 269 256 245
175 183 189 159 185 172 168 175 180 180 190 190 200 242 244 247 245 235 246 263 273 263 240 226 234 245 257 258 248 242 244 251 258 290 301 286 287 275
181 170 161 179 171 173 179 182 183 194 193 236 246 246 247 249 234 239 270 259 263 239 228 231 244 256 255 243 229 239 245 249 269 308 312 308 293 273
184 182 172 182 185 178 182 192 196 202 245 250 247 241 248 231 237 262 274 270 242 223 229 235 254 232 245 253 240 238 254 264 301 314 305 294 287 255
190 177 172 182 185 193 188 195 251 242 251 237 239 246 243 238 244 268 260 246 224 220 239 248 212 243 248 236 252 247 261 268 308 300 282 258 269 275
204 185 193 195 197 204 265 254 245 249 245 238 248 238 235 233 267 258 251 226 222 217 237 243 236 249 235 243 244 246 262 276 298 289 264 275 304 308
195 200 238 271 263 261 244 259 251 244 242 251 238 230 237 262 245 259 231 231 212 219 230 242 244 235 242 245 248 254 259 292 293 286 281 309 316 298
284 285 264 259 252 244 253 246 235 249 231 233 231 244 262 250 239 242 229 224 232 225 245 241 233 235 240 247 251 254 264 293 288 313 331 329 350 346
131 262 251 238 264 246 242 255 246 235 233 235 255 247 250 240 241 229 219 210 218 235 239 235 230 235 246 248 250 255 291 289 318 349 351 345 338 334
265 267 260 252 245 237 248 230 234 232 237 252 254 244 237 236 238 219 244 205 234 238 230 231 234 240 246 251 254 291 291 297 321 352 343 334 328 306
238 250 246 239 241 250 235 235 230 249 246 249 245 238 223 238 240 229 210 233 238 230 224 234 238 243 249 247 264 290 287 324 314 352 336 329 307 390
235 235 259 252 238 237 238 230 249 243 247 245 234 230 244 242 239 216 233 239 229 224 232 231 237 247 242 253 292 276 319 318 295 351 332 326 297 386
272 252 243 236 239 230 248 247 240 258 243 234 231 249 240 237 222 238 238 228 223 228 228 235 244 243 251 289 287 314 316 320 365 354 340 330 312 380
243 237 238 234 251 242 238 248 257 240 234 234 250 238 232 232 248 232 226 223 226 226 234 234 242 250 283 289 296 318 317 312 329 361 332 330 299 320
238 244 250 240 240 247 250 252 234 231 243 249 232 229 235 245 227 224 223 224 226 231 236 238 247 274 285 288 312 325 338 304 335 348 340 327 311 327
244 235 235 243 246 255 239 235 230 273 240 230 236 230 236 225 220 220 219 224 230 234 240 250 268 282 278 304 329 329 320 330 332 345 344 329 324 297
243 247 240 249 244 232 240 293 261 231 234 234 231 236 222 221 218 216 220 231 227 238 249 264 283 281 294 310 334 334 343 341 340 333 331 335 319 319
240 244 242 235 246 262 253 239 237 232 229 239 248 216 218 218 214 217 227 226 235 246 260 281 288 283 296 333 325 343 340 340 330 313 304 305 320 314
243 233 228 257 255 248 237 235 234 237 250 231 216 217 216 215 215 228 225 235 242 253 276 291 286 301 309 350 355 342 330 312 327 343 346 328 304 297
226 227 243 255 247 238 230 235 249 246 219 217 217 215 217 213 225 227 232 241 249 272 286 281 290 304 348 359 350 328 322 348 338 370 382 384 364 321
226 230 240 248 245 239 237 242 220 215 212 214 216 216 213 219 231 229 242 247 262 280 283 280 298 310 341 360 346 325 348 341 400 331 356 408 417 379

GFSNE_2pvu_pres_093.txt.gz
Presure
169 177 163 162 173 167 185 170 171 161 175 183 164 171 197 221 201 193 185 197 241 249 243 251 245 283 271 254 232 239 263 268 268 262 253 251 210 251
167 180 179 182 181 180 172 178 172 179 171 197 177 175 186 189 189 186 201 240 253 249 253 245 285 281 261 240 233 270 264 251 249 246 241 245 249 258
184 162 162 187 172 155 173 177 172 188 199 181 166 185 187 190 188 197 235 254 243 250 244 233 273 266 244 230 244 234 222 253 245 248 239 233 249 267
142 184 189 154 184 192 182 186 192 191 198 187 190 184 194 197 196 252 256 241 242 241 246 275 265 251 238 216 230 231 219 249 243 235 254 245 280 291
199 181 152 196 206 191 197 191 198 182 190 183 209 192 202 213 250 242 254 240 234 238 268 252 259 246 229 216 241 239 237 250 240 251 254 267 273 314
198 188 197 197 214 216 212 205 199 200 192 202 200 200 252 250 255 247 241 244 235 245 260 244 259 232 230 235 228 246 248 238 245 255 263 265 277 317
177 186 193 196 201 222 219 218 210 194 196 201 209 249 247 255 245 239 241 240 241 256 243 248 241 228 225 220 245 243 241 238 247 256 263 268 301 311
192 199 202 204 210 216 173 200 195 202 206 264 256 238 258 245 257 237 236 224 257 252 239 243 231 221 215 237 240 240 235 241 253 259 262 270 307 297
210 227 232 260 229 205 204 204 207 268 265 256 263 256 248 243 245 228 239 254 263 235 239 241 228 226 224 241 239 230 239 242 255 256 267 294 299 319
268 259 251 222 315 235 277 274 268 256 259 253 253 248 251 237 235 236 251 260 241 228 241 240 245 221 242 237 234 236 237 252 256 264 270 299 309 335
264 259 255 295 279 274 263 266 250 246 253 241 238 235 238 230 236 250 253 246 232 251 242 241 225 245 233 234 230 234 247 250 260 265 297 302 329 350
264 276 270 256 259 242 240 271 258 248 246 252 250 237 237 239 251 258 246 235 246 239 235 227 246 230 231 229 231 237 246 257 263 297 305 329 334 325
250 238 252 238 239 260 240 237 248 231 253 239 236 238 242 246 256 244 236 241 240 230 235 243 229 228 228 230 236 240 251 256 293 295 332 337 342 324
278 270 245 261 256 239 250 234 248 252 241 230 238 249 239 254 245 232 247 242 229 232 237 229 224 224 228 234 234 247 252 297 290 309 346 340 326 332
263 265 264 249 246 239 242 257 240 236 235 248 243 247 252 243 231 244 242 229 231 235 226 222 221 224 232 233 242 251 290 291 313 352 335 339 338 339
259 253 242 247 254 255 250 237 235 234 247 237 247 255 240 230 252 240 229 235 236 224 220 217 219 230 230 243 248 286 295 290 338 357 353 351 348 345
279 257 260 258 251 238 234 241 248 238 240 247 255 235 237 276 237 230 230 240 222 221 216 216 228 228 239 245 264 300 288 312 364 363 362 351 339 328
252 251 250 242 231 249 243 236 239 247 249 245 233 276 257 237 234 232 243 220 220 216 214 224 228 231 244 250 289 291 293 317 356 363 357 323 315 326
247 248 233 247 250 233 235 247 240 248 239 266 258 242 239 230 241 235 218 217 215 214 218 228 227 243 245 267 293 289 311 346 352 369 331 327 339 319
255 255 247 235 231 249 239 246 240 232 254 252 241 236 237 253 219 220 216 216 212 213 223 225 236 247 253 288 286 288 313 356 369 353 327 361 317 363
240 233 233 250 244 232 247 237 227 250 254 244 234 233 239 219 213 210 214 216 211 217 224 227 242 250 276 291 280 303 320 361 380 325 350 342 340 380
228 249 244 238 231 248 234 224 224 244 251 248 243 236 219 213 210 207 214 214 214 219 225 239 251 255 285 287 285 308 355 387 346 354 352 344 358 339
247 239 237 231 249 237 221 226 229 242 239 241 218 220 217 212 207 212 216 214 216 223 226 248 248 264 289 282 296 317 364 394 336 348 347 346 357 334

GFSNE_2pvu_pres_096.txt.gz
Presure
137 152 173 196 169 191 172 187 178 174 187 189 166 177 200 198 212 217 208 177 210 201 206 261 245 261 255 247 277 269 263 243 223 232 230 218 249 263
164 177 179 170 185 177 183 180 187 170 168 137 149 200 181 188 202 216 218 210 201 206 226 247 252 247 244 240 268 261 260 241 228 233 247 250 256 245
146 179 169 173 175 177 186 188 189 193 161 180 195 175 194 198 193 192 207 198 204 207 252 250 257 247 248 275 260 253 247 241 229 227 234 253 248 237
182 171 187 166 157 141 180 151 166 171 164 202 193 184 169 194 204 177 199 205 206 253 255 242 233 238 240 271 253 248 241 231 225 236 247 251 244 240
147 170 177 184 153 181 178 181 170 191 202 193 199 187 197 208 175 199 207 265 258 240 241 246 250 234 269 254 242 247 239 247 223 253 248 245 253 255
183 180 183 147 184 183 186 190 168 192 193 198 166 209 211 282 220 213 244 254 236 237 237 243 232 258 260 244 235 246 243 227 239 247 245 248 250 259
200 175 194 187 161 192 191 189 192 194 198 203 209 221 241 254 265 262 245 266 249 253 240 240 241 258 250 241 245 246 238 234 245 240 240 242 250 258
188 193 195 199 195 206 181 202 205 205 220 246 218 136 250 272 265 253 262 247 250 236 247 247 258 258 237 247 244 237 233 242 234 235 239 244 248 268
207 208 211 211 209 213 215 219 256 233 227 241 222 271 273 245 248 255 245 238 244 241 237 253 261 239 241 243 235 233 240 232 233 235 241 244 259 268
220 221 221 224 231 237 247 261 228 233 239 263 261 263 248 260 253 247 232 246 239 240 253 258 241 236 248 241 231 238 229 228 230 236 239 255 262 282
268 253 250 249 252 250 282 268 256 259 287 228 242 242 263 234 238 232 244 237 236 252 250 250 232 254 232 231 238 229 226 225 233 234 251 255 267 306
282 294 285 312 271 319 269 277 289 268 247 266 248 252 248 247 236 252 242 231 250 249 255 233 254 233 234 238 230 225 219 230 232 245 250 258 302 306
270 266 269 303 316 275 282 275 252 257 258 253 248 230 249 248 243 239 234 247 246 258 232 256 237 231 237 231 223 218 223 232 237 246 251 304 295 365
307 301 299 286 279 273 285 275 255 258 243 257 244 238 252 245 236 235 248 247 258 234 240 237 229 241 232 221 222 218 230 231 241 249 295 292 314 369
319 290 277 262 258 265 257 263 259 250 252 245 235 256 247 238 243 244 251 250 234 282 236 245 245 231 219 221 219 226 229 238 245 264 301 286 316 361
298 278 269 262 251 259 265 238 257 244 244 263 251 240 241 245 242 251 242 249 264 239 245 246 228 222 218 216 219 228 230 242 252 298 289 309 363 360
293 267 265 274 273 258 264 246 250 250 260 249 232 247 239 244 248 235 262 242 240 237 251 223 222 218 218 214 223 226 232 252 270 301 285 317 366 391
272 275 260 276 264 252 275 268 251 253 244 242 242 236 247 246 231 257 245 238 235 254 220 214 213 216 212 218 223 227 248 250 287 294 304 340 388 379
263 263 271 264 258 257 248 239 247 228 253 237 239 239 244 233 251 245 240 229 247 219 212 209 212 214 211 215 226 232 255 267 296 289 317 381 382 343
253 255 255 245 249 248 235 240 255 244 231 249 237 242 234 228 251 247 246 241 223 216 215 212 211 214 213 217 226 246 248 271 294 287 319 387 333 360
258 253 246 243 252 257 256 244 232 241 247 234 244 233 227 229 239 242 244 231 223 214 210 211 212 210 213 222 230 254 262 288 290 294 323 377 348 302
241 244 247 243 237 236 236 226 243 243 236 239 238 226 227 227 237 236 223 218 211 215 205 211 215 210 215 224 242 250 267 297 289 298 334 390 336 295
242 237 235 234 231 232 235 247 242 238 230 246 239 228 225 229 234 233 218 212 214 209 211 211 216 211 222 230 257 252 269 294 289 306 347 408 330 295

GFSNE_2pvu_pres_099.txt.gz
Presure
162 181 183 153 184 187 187 157 199 153 162 173 161 157 175 184 174 166 197 193 187 200 198 216 220 241 260 247 229 250 253 249 270 259 257 245 233 230
167 156 153 166 176 173 177 164 174 166 171 171 170 182 157 165 168 182 193 198 202 202 213 212 255 229 258 250 244 251 244 258 261 249 256 245 243 220
155 192 148 174 183 171 175 174 170 168 179 181 147 162 189 200 174 200 198 200 204 210 231 225 255 252 244 245 251 244 239 271 255 249 257 248 250 226
164 164 174 173 203 202 200 198 189 182 188 189 150 164 181 189 194 202 204 206 217 258 224 264 255 247 256 242 235 253 266 264 253 250 256 246 232 249
170 168 168 167 170 175 181 209 204 203 201 200 197 161 161 199 195 199 205 214 279 228 223 268 247 233 239 244 243 249 266 249 251 253 250 241 252 242
205 188 178 174 173 177 177 184 182 194 212 189 202 199 196 196 205 209 216 232 240 255 268 243 227 243 235 244 239 258 256 245 252 251 243 248 239 238
192 214 214 208 189 176 187 184 185 193 197 199 201 200 193 210 213 223 256 235 261 254 246 248 241 236 241 232 253 262 241 261 247 241 243 235 236 234
228 195 230 223 210 135 192 194 143 201 197 203 205 211 214 220 234 241 262 248 257 244 256 227 238 246 241 245 255 249 236 247 233 241 234 231 230 237
193 212 208 208 207 206 156 210 215 214 216 218 222 226 247 243 249 269 277 260 244 256 229 244 232 241 237 253 258 234 262 236 241 238 231 227 231 239
232 230 225 223 221 222 222 222 224 225 234 196 241 240 261 267 247 271 255 234 243 249 236 231 245 233 251 257 240 251 241 238 239 230 224 227 234 239
223 249 247 247 248 248 251 302 250 259 272 192 286 273 303 257 267 258 266 250 248 228 239 250 236 247 251 244 235 256 232 242 230 219 226 228 232 244
323 313 285 276 276 334 346 252 309 303 288 267 262 298 292 259 244 254 250 240 241 238 250 237 241 249 248 238 276 236 239 231 217 223 219 230 233 247
307 308 324 327 325 292 290 285 283 280 299 267 279 279 253 251 248 246 246 249 233 251 241 245 249 247 239 270 237 236 232 218 219 220 221 228 238 255
301 295 301 300 338 302 303 309 277 278 292 270 274 264 257 251 247 250 235 234 254 238 251 248 243 257 260 239 235 237 217 216 219 217 221 231 240 256
323 291 284 293 297 288 285 290 278 278 267 257 265 249 255 259 243 238 229 251 236 245 249 241 269 248 242 241 251 217 211 216 217 217 222 230 250 277
313 338 298 310 309 301 280 276 264 265 257 250 240 249 244 252 236 239 250 237 241 248 240 237 249 239 233 255 217 211 212 217 215 217 227 237 252 301
289 312 289 276 283 295 282 274 262 259 253 255 240 260 231 259 252 241 246 238 244 240 230 249 241 232 245 222 215 215 211 216 214 218 227 246 271 300
270 302 287 275 275 287 277 272 271 271 266 240 242 266 254 242 237 245 237 240 240 229 250 243 243 239 234 222 213 212 213 214 214 222 230 244 286 292
263 268 269 272 266 265 262 267 264 264 261 265 258 238 247 227 249 232 239 237 234 224 242 241 244 239 226 218 214 212 214 216 214 226 260 255 289 287
267 258 252 251 251 260 253 252 262 252 241 254 242 232 244 243 227 244 231 234 227 225 233 234 235 215 213 218 207 213 216 214 218 229 271 266 297 287
265 266 263 262 258 255 245 244 240 238 237 245 254 249 233 223 244 232 227 234 223 225 227 232 228 212 213 218 206 214 218 213 219 235 248 270 294 288
250 248 248 247 248 255 258 260 254 252 255 238 232 233 221 239 237 229 233 237 228 221 226 228 224 209 214 210 209 213 222 215 227 260 250 272 289 287
240 242 243 240 236 236 237 234 230 229 230 229 227 231 241 238 234 229 228 243 229 226 231 228 221 210 217 204 212 215 218 216 240 272 256 285 294 288

GFSNE_2pvu_pres_102.txt.gz
Presure
159 174 161 171 140 170 183 163 160 166 165 167 173 173 186 172 193 203 188 156 199 213 198 197 196 204 207 288 259 261 272 231 245 252 247 275 259 254
189 192 183 175 170 157 175 160 166 158 155 165 167 153 175 173 182 175 191 176 183 195 160 197 203 205 217 235 262 259 254 251 247 246 257 267 254 253
184 185 187 193 196 186 201 171 148 180 179 172 188 175 176 177 180 169 173 202 193 203 211 204 201 216 232 248 259 245 251 237 249 236 264 257 252 255
166 163 165 161 165 196 200 203 201 202 200 203 198 202 161 186 190 179 185 192 196 198 204 203 217 229 262 266 231 243 234 244 245 242 270 250 268 256
201 200 164 176 173 175 176 174 184 206 213 212 212 212 187 211 202 195 194 193 197 203 200 215 235 260 255 270 256 252 239 243 247 258 265 247 258 245
166 172 174 202 173 175 181 183 185 186 184 211 196 208 193 214 204 200 203 199 208 209 219 230 239 279 266 257 249 238 242 248 237 256 255 244 251 240
182 183 179 182 183 183 166 188 186 192 203 193 195 193 214 206 199 201 206 210 216 229 237 289 271 265 252 237 243 242 241 236 253 264 244 276 240 243
191 212 201 200 201 206 206 206 206 206 208 207 193 204 204 205 214 213 219 226 228 254 274 257 261 253 242 236 239 242 251 232 251 253 241 252 240 244
198 204 211 216 217 219 219 218 217 218 219 218 217 216 218 221 227 227 237 255 274 292 260 252 264 244 248 247 236 239 238 250 257 242 285 240 249 231
243 241 239 236 235 236 234 235 234 235 233 230 229 229 202 239 248 246 241 292 283 280 278 257 256 250 237 245 250 251 240 251 246 281 243 245 236 219
287 279 277 274 266 267 268 262 262 261 259 253 259 257 268 262 303 283 280 249 287 282 263 253 243 241 249 229 246 240 250 248 276 244 243 242 219 220
269 292 273 271 265 292 306 328 336 328 305 300 295 319 271 294 285 270 255 289 275 259 251 240 235 245 238 250 248 250 244 269 243 243 259 220 215 219
270 379 371 322 296 309 303 315 311 298 319 313 314 279 280 303 298 290 269 260 259 249 252 241 248 230 244 243 249 241 258 246 239 259 226 214 214 220
365 368 358 350 337 316 327 321 294 290 292 302 304 292 302 279 284 269 272 259 252 243 250 243 236 247 232 246 240 252 246 240 240 238 218 216 212 218
308 323 323 326 331 319 269 291 303 285 309 300 297 281 286 276 273 263 264 247 256 242 245 233 241 244 241 243 235 248 241 233 249 223 216 214 215 219
284 286 292 295 298 326 293 315 313 272 298 287 261 271 271 258 267 254 247 241 248 230 250 241 229 239 242 236 249 245 248 239 227 219 216 213 215 220
266 277 276 275 290 319 308 300 294 288 297 274 281 274 261 259 250 248 248 232 263 251 241 236 240 240 239 230 239 237 237 223 220 212 218 213 217 216
274 279 274 276 278 283 282 277 284 287 280 270 265 263 245 241 250 247 262 262 240 241 236 238 235 236 235 224 230 230 235 215 213 217 213 214 220 217
265 263 269 273 264 274 285 268 269 266 273 275 272 264 261 254 257 259 253 235 237 236 239 228 235 231 232 222 225 227 226 218 214 217 207 210 220 220
262 264 266 263 272 260 252 248 253 255 260 256 254 253 255 255 240 243 237 233 244 240 225 242 228 232 234 222 221 219 227 221 214 221 215 212 219 219
249 253 259 252 254 267 264 259 254 253 253 247 244 240 241 242 238 233 246 249 240 223 230 237 227 231 238 231 220 223 225 226 213 223 212 216 240 248
246 243 243 236 247 248 247 244 246 254 258 255 251 256 255 248 249 246 235 235 228 228 240 237 229 226 230 239 238 225 228 227 211 224 212 247 279 277
252 252 249 245 249 236 238 243 241 235 235 233 237 235 233 229 229 231 229 230 236 246 241 228 229 230 229 231 246 232 231 224 217 212 256 292 282 269

GFSNE_2pvu_pres_105.txt.gz
Presure
169 172 173 167 160 164 166 173 172 175 173 173 178 186 170 185 186 200 202 201 182 195 208 212 197 205 142 202 204 206 215 243 266 270 255 254 248 257
163 167 155 169 179 168 166 165 172 177 157 181 188 157 183 182 182 184 185 200 211 173 214 218 215 212 211 202 204 215 230 250 261 261 243 248 251 245
162 172 178 166 166 163 165 164 170 165 174 168 169 180 171 169 173 183 181 152 187 159 212 198 197 222 198 205 211 225 243 240 271 253 253 245 252 244
175 179 177 164 159 163 156 164 167 156 184 190 167 184 200 174 177 183 178 182 192 196 197 205 213 198 207 216 223 243 262 249 262 241 242 246 252 249
172 179 179 173 172 173 163 160 159 164 168 167 170 177 172 174 181 186 187 192 198 203 199 201 203 209 206 224 183 293 251 266 259 241 242 243 245 249
191 214 213 198 182 177 187 181 173 169 171 172 186 174 185 163 162 194 195 164 203 205 180 211 213 222 221 243 261 267 244 259 247 248 240 240 246 252
192 203 212 211 209 209 215 208 205 202 208 206 210 194 196 204 208 210 213 214 214 215 221 219 223 230 243 247 256 255 266 261 247 245 248 255 242 256
198 199 191 185 184 190 189 190 194 194 197 201 202 211 214 216 224 223 223 226 226 222 230 238 242 282 278 287 279 266 269 251 240 246 253 240 257 253
231 229 205 197 201 203 203 205 208 211 218 220 225 228 229 232 235 234 233 236 238 242 243 279 261 284 276 282 266 259 253 246 247 236 249 253 251 279
299 297 302 305 287 286 265 262 263 258 257 248 249 252 252 253 253 256 261 260 259 307 265 287 288 271 255 257 259 253 243 247 242 248 251 251 268 247
270 294 292 270 295 294 296 291 297 287 279 323 316 313 298 301 309 317 317 291 302 287 299 278 294 266 271 261 248 252 246 233 247 244 251 256 249 239
247 279 280 276 260 346 338 254 252 254 255 304 309 309 297 309 256 316 296 304 282 286 275 295 280 272 259 248 252 240 252 246 236 249 245 252 244 234
295 291 282 322 318 347 379 332 335 354 314 341 303 299 293 310 284 308 302 308 296 266 275 257 267 262 252 251 248 236 246 232 242 241 254 249 245 247
295 283 298 300 305 323 349 346 344 331 291 314 300 300 296 309 279 311 305 282 293 277 268 265 263 251 247 256 238 247 233 238 241 246 254 247 242 236
294 286 289 289 283 298 293 320 327 303 301 301 286 277 308 301 290 294 302 286 271 265 256 265 251 253 249 235 250 237 236 241 233 241 240 232 230 218
285 283 273 287 277 283 296 294 297 316 317 295 300 286 286 287 259 276 273 267 260 258 260 253 254 238 261 253 236 232 234 237 231 230 230 231 231 214
275 270 272 270 281 273 272 273 277 297 320 312 301 298 285 284 277 264 258 263 257 261 249 244 252 250 252 238 230 234 236 232 231 225 228 229 230 224
272 266 268 261 265 265 279 276 272 279 289 287 281 264 266 277 260 249 261 258 258 242 245 247 262 249 239 225 243 230 236 228 237 226 221 226 227 226
263 252 261 265 254 263 262 268 273 264 292 286 276 275 275 267 251 252 250 260 255 250 260 260 248 234 228 246 233 239 232 225 239 237 224 224 230 228
256 263 258 244 257 256 251 260 260 264 253 252 265 262 260 261 263 267 260 261 263 262 241 244 229 230 245 237 223 228 234 226 228 236 239 240 237 229
278 269 258 251 248 250 249 250 249 248 262 255 252 250 248 253 253 247 246 239 241 238 238 230 236 245 234 230 223 237 235 230 228 229 228 243 251 228
261 279 275 259 255 254 247 240 238 240 241 247 245 249 252 253 250 247 246 245 251 248 242 243 237 228 227 222 234 239 234 229 228 234 242 261 258 225
264 263 262 266 277 270 253 250 249 247 239 241 243 244 236 230 229 228 230 232 231 229 230 231 228 231 232 243 240 243 235 232 234 244 271 268 238 225

GFSNE_2pvu_pres_108.txt.gz
Presure
167 171 170 162 174 198 174 153 183 149 179 148 181 163 159 164 169 166 167 173 157 171 178 185 168 196 184 186 197 194 205 209 174 220 230 274 243 266
159 164 138 176 178 174 175 172 178 186 179 170 161 165 169 170 163 163 169 173 170 170 163 169 182 178 191 194 207 205 208 211 218 202 239 254 269 266
175 178 180 163 163 169 179 169 157 176 186 178 175 169 167 168 174 173 177 170 166 164 193 180 190 196 195 205 208 212 216 221 223 234 249 251 254 255
162 168 174 175 178 180 180 183 184 183 190 175 191 198 221 208 182 208 178 182 163 189 217 191 195 193 205 212 217 222 227 221 239 282 245 250 266 256
151 179 178 178 181 189 179 184 186 177 188 188 183 197 203 222 217 215 219 194 191 179 191 195 204 207 216 220 224 228 223 241 261 290 284 262 262 236
188 190 193 176 200 229 229 248 249 209 191 191 200 198 183 224 197 185 193 213 199 204 209 214 220 219 221 225 232 235 248 240 278 278 273 262 253 247
244 242 234 235 253 261 265 266 264 262 248 230 225 206 231 215 201 203 206 211 210 219 220 222 227 234 233 239 254 249 245 252 279 274 257 254 252 250
231 235 256 255 254 253 253 261 260 249 249 239 232 237 232 223 219 217 227 223 229 236 240 233 243 244 252 251 252 271 261 268 254 266 264 251 248 245
264 269 306 293 291 333 307 324 315 314 279 275 277 276 271 264 267 267 256 262 257 250 254 254 254 256 274 262 277 298 276 284 260 255 253 236 249 237
272 263 285 310 289 299 307 320 300 294 295 297 295 297 289 283 284 288 277 278 273 278 277 305 322 318 266 264 279 279 286 269 259 261 246 245 248 246
292 274 263 293 316 262 305 281 266 324 301 304 331 348 376 340 297 297 291 283 282 297 287 310 313 302 288 297 279 288 274 264 251 243 247 244 246 241
265 245 254 266 308 310 309 295 306 310 319 345 379 392 355 361 289 327 294 282 285 285 285 279 286 289 299 285 291 278 263 252 245 245 244 246 240 241
254 288 288 290 293 310 299 292 295 302 304 333 352 361 339 374 329 319 282 301 276 284 280 309 281 290 281 252 257 260 259 249 250 250 237 243 237 240
274 297 293 283 302 294 292 287 294 287 292 293 327 339 330 317 311 300 293 289 290 278 271 302 289 292 273 267 267 260 247 242 243 245 242 234 237 231
285 284 302 284 294 289 283 279 280 284 278 284 295 303 311 299 292 291 285 301 261 281 289 288 282 273 273 251 263 246 248 239 237 248 235 235 233 232
289 316 291 281 293 288 278 269 272 278 274 272 269 274 298 301 292 296 284 283 274 275 270 281 269 260 255 260 251 240 246 239 259 236 232 231 235 231
295 297 300 283 278 272 269 267 264 266 264 272 273 287 309 302 294 289 284 266 279 271 255 258 257 241 258 251 243 234 242 255 240 232 239 229 234 227
281 278 289 279 271 269 266 271 262 255 264 261 271 270 275 290 288 282 284 279 262 253 252 245 249 256 248 237 242 242 257 237 231 236 228 232 231 228
281 285 278 275 271 277 264 263 264 253 254 261 262 264 270 279 271 274 273 265 266 256 246 261 247 246 238 237 261 259 237 233 227 242 226 216 234 231
273 280 277 288 276 262 251 263 256 249 253 247 249 258 263 254 261 257 257 269 263 254 252 252 248 256 257 260 243 243 227 234 244 239 227 220 234 238
264 279 266 273 273 272 277 268 260 249 244 250 245 249 243 261 254 249 245 245 247 246 253 244 242 239 240 242 243 232 236 241 232 229 224 227 240 241
257 278 277 270 266 272 263 271 276 260 252 249 241 240 242 240 244 258 251 248 248 248 248 246 238 237 241 248 246 240 234 227 224 226 229 243 243 235
270 267 278 274 268 270 267 264 256 270 277 257 252 246 239 237 237 240 244 239 243 248 253 238 232 230 227 228 227 229 230 227 230 238 249 243 240 231

GFSNE_2pvu_pres_111.txt.gz
Presure
146 177 182 167 158 173 184 143 177 175 135 200 194 197 204 161 186 173 176 164 183 174 192 195 201 214 210 199 197 197 184 140 212 207 225 221 231 238
195 175 177 161 156 174 163 144 181 189 150 179 173 189 171 158 175 188 171 215 229 182 177 178 177 167 187 200 180 197 190 203 207 221 220 226 228 245
196 163 155 155 155 171 156 184 187 182 178 192 187 168 181 205 211 220 228 245 231 216 216 183 199 198 180 184 175 194 205 215 221 218 229 229 248 264
157 160 152 155 208 153 181 179 181 197 201 227 242 232 238 256 231 230 270 231 239 240 233 203 201 235 203 205 212 208 215 215 224 232 237 243 244 274
179 181 188 174 177 189 181 183 198 200 202 260 248 252 243 231 237 252 257 256 250 248 235 224 211 231 232 234 219 218 217 226 228 241 246 256 256 274
201 186 190 207 196 191 187 203 216 256 250 238 262 251 271 270 270 251 251 254 241 232 237 225 227 235 222 225 222 227 233 235 251 249 250 255 260 277
166 199 220 243 254 278 222 221 247 270 280 318 308 323 327 316 277 275 268 260 255 251 246 245 238 232 232 233 237 243 250 261 264 255 289 279 279 265
224 226 264 212 249 214 228 230 281 302 301 300 337 305 312 295 298 301 299 293 286 293 279 289 318 284 291 282 274 266 268 274 264 261 232 279 278 265
244 221 206 148 200 261 207 252 266 320 270 283 327 328 296 308 293 254 293 272 271 273 270 276 225 306 268 260 272 255 250 275 283 288 275 280 267 261
243 250 261 215 239 241 265 272 209 282 297 265 296 313 301 306 292 341 333 273 347 296 295 283 283 277 265 256 289 290 282 315 297 285 285 260 258 246
206 214 264 268 264 267 277 262 265 311 305 272 312 301 305 301 317 391 395 369 347 340 326 307 288 286 278 288 278 306 304 296 276 274 276 256 259 243
256 269 262 260 272 274 274 244 292 301 309 304 301 302 292 297 304 378 338 335 324 316 330 304 285 282 260 281 328 267 274 291 270 280 269 261 243 240
262 257 260 265 264 267 266 287 298 303 305 286 297 284 291 288 295 313 338 335 328 311 307 299 287 292 273 278 294 280 267 277 257 268 256 251 245 247
251 262 272 255 251 260 259 290 301 309 300 301 290 279 282 277 276 287 318 308 310 308 293 269 278 274 271 280 278 290 254 277 258 251 251 242 238 237
264 243 242 252 266 250 288 302 311 296 292 291 281 267 278 276 277 274 276 293 281 317 319 312 290 289 282 286 265 277 273 254 243 252 247 237 233 236
266 254 253 259 263 282 296 304 289 298 285 276 268 267 271 267 274 276 302 293 292 268 281 281 277 265 277 265 279 262 257 252 249 248 238 246 232 246
251 258 265 262 279 293 295 294 277 297 279 268 269 263 260 265 266 272 310 296 284 280 268 280 268 267 255 269 268 256 242 237 244 246 233 236 244 246
253 264 255 278 280 289 296 279 280 275 277 272 267 266 255 261 262 269 279 278 287 287 288 271 264 269 258 250 248 238 248 248 239 231 241 237 250 236
257 256 280 272 298 286 283 281 282 283 262 275 268 256 259 254 256 263 278 273 271 264 281 283 272 248 245 233 238 240 251 247 231 231 252 249 240 231
277 269 280 271 291 268 279 277 271 284 278 272 255 263 254 251 248 245 252 265 263 257 265 269 262 260 247 244 255 241 247 235 238 247 244 235 236 228
268 270 270 287 273 262 272 267 280 264 270 269 275 270 259 246 245 248 249 245 255 250 250 249 258 253 244 244 253 256 253 249 248 243 239 234 229 238
288 285 285 275 272 266 266 262 277 277 267 275 263 259 275 263 249 245 247 246 241 245 257 255 251 245 243 247 242 237 240 236 238 239 239 240 238 235
282 278 274 269 268 241 266 261 263 275 269 268 264 274 255 275 269 255 249 249 240 238 237 240 241 243 249 249 248 244 242 242 236 228 230 233 230 236

GFSNE_2pvu_pres_114.txt.gz
Presure
161 135 175 160 194 134 174 150 148 176 165 133 175 176 211 155 199 178 198 187 186 212 232 275 241 236 221 237 236 243 232 222 226 229 197 206 205 209
184 193 194 180 182 197 195 172 188 218 172 198 187 199 173 200 218 166 235 265 226 255 239 234 234 229 236 245 248 254 247 249 220 218 236 211 221 215
172 164 191 191 163 178 147 175 167 152 185 196 174 201 203 176 218 282 197 258 260 244 279 274 261 251 258 250 249 244 237 221 216 208 222 219 218 228
172 214 178 170 175 197 143 199 182 176 185 195 212 204 216 209 181 211 245 252 282 284 281 278 264 263 254 249 239 230 223 225 224 218 223 224 229 226
189 172 167 183 151 144 158 211 146 205 195 213 209 218 213 270 267 246 258 312 304 327 315 291 272 272 260 255 244 238 234 228 227 227 226 231 227 247
163 185 185 133 171 152 187 168 203 178 209 209 216 206 240 242 291 246 333 328 267 316 310 277 305 305 297 295 285 257 241 239 242 252 254 252 259 265
168 177 180 136 167 193 202 199 170 205 215 220 217 235 246 303 283 320 313 341 287 261 295 256 298 275 280 291 286 273 258 256 261 268 244 265 252 267
168 190 186 191 199 178 202 208 216 212 216 224 248 233 293 303 309 328 320 325 320 325 342 328 267 311 295 269 275 261 274 295 268 258 266 255 244 255
150 191 190 180 179 202 195 221 216 180 218 229 244 262 240 287 308 327 323 319 310 316 325 341 340 347 306 280 273 269 275 274 248 243 243 245 255 278
185 176 192 197 201 201 213 214 204 235 229 216 253 280 282 290 240 311 315 312 306 316 323 372 324 331 346 317 272 275 263 264 305 273 267 248 266 260
170 190 187 201 205 206 210 221 197 231 239 278 279 276 274 314 328 322 303 305 295 306 340 331 340 322 329 302 307 293 271 272 262 266 289 281 277 291
191 202 204 213 216 216 234 239 278 277 262 273 275 268 287 339 322 317 300 287 286 288 333 340 321 302 306 298 289 277 284 279 279 280 259 299 275 266
202 214 214 222 240 255 257 221 272 267 264 278 275 261 293 316 312 303 292 287 282 277 287 350 312 300 304 294 287 269 267 265 256 280 256 266 265 260
213 226 239 266 234 240 284 278 273 265 283 277 264 281 305 309 304 295 283 270 286 280 281 299 305 297 296 287 275 279 272 262 282 268 276 268 263 265
308 284 271 297 299 283 287 274 260 280 258 260 282 306 310 298 300 282 271 275 269 279 279 305 281 308 286 269 267 262 266 263 255 281 257 265 263 255
270 303 294 296 276 262 278 252 280 274 259 280 282 298 310 308 294 280 268 269 268 274 281 302 287 270 267 290 286 284 271 280 287 268 264 264 252 238
287 282 288 286 265 266 254 258 263 264 273 273 290 311 294 281 290 278 268 263 266 269 311 300 284 281 280 267 279 265 262 264 274 265 259 246 241 240
299 273 262 264 263 274 272 267 280 271 265 288 308 291 293 287 276 280 271 261 258 265 268 284 287 283 277 275 269 260 253 250 266 260 251 244 234 239
286 275 273 273 267 263 256 270 261 282 270 275 294 281 281 278 283 277 270 258 256 253 260 278 271 270 293 264 259 269 254 273 245 246 239 244 247 240
262 260 262 279 272 271 261 278 270 271 269 293 283 273 278 272 281 277 268 258 257 253 246 250 257 266 267 267 264 259 250 247 235 235 237 234 241 238
263 261 261 269 261 256 267 264 264 257 286 284 278 269 267 279 269 264 273 267 261 251 249 245 250 246 256 263 264 259 259 253 237 244 251 234 234 240
258 260 257 272 274 271 257 260 284 287 279 275 271 262 264 266 277 272 270 258 265 265 255 243 248 242 244 245 248 255 257 250 243 241 244 252 251 247
271 265 265 263 257 255 261 290 280 278 276 269 274 245 261 263 266 274 268 275 262 262 269 260 248 241 244 243 238 245 243 243 243 247 250 241 239 240

GFSNE_2pvu_pres_117.txt.gz
Presure
165 165 154 204 166 164 188 146 167 187 156 186 181 198 159 185 194 185 195 182 200 192 185 214 213 282 283 304 279 273 261 262 251 248 243 237 235 225
195 159 173 202 187 159 199 192 197 183 138 188 175 179 171 202 151 201 201 205 201 218 223 224 250 273 305 307 300 290 275 258 258 250 243 236 230 224
142 180 129 169 172 189 167 193 176 168 181 164 154 209 183 176 167 180 214 204 210 216 198 272 308 280 326 312 306 273 283 292 264 253 245 231 232 231
167 182 176 202 193 193 181 184 179 188 155 183 200 204 196 189 168 200 210 223 210 236 264 335 261 360 344 244 293 306 300 285 308 268 250 241 238 234
212 193 200 201 178 191 183 184 154 170 177 139 196 205 213 209 204 198 210 232 218 238 241 314 350 312 246 344 333 287 291 261 294 291 282 261 237 238
192 175 177 159 181 155 198 184 171 189 143 177 185 195 207 208 191 215 209 220 227 230 266 324 342 329 342 346 335 332 287 275 271 262 274 266 257 257
155 190 178 175 158 145 193 163 187 183 182 201 187 204 188 211 200 218 214 222 240 265 276 348 337 325 323 324 324 331 310 283 265 268 286 250 267 247
170 173 199 184 202 187 188 172 188 190 192 173 185 206 190 232 199 216 206 173 233 239 341 341 330 319 310 315 323 321 344 304 268 267 253 283 250 250
180 192 155 161 181 178 191 184 168 182 185 185 210 204 196 203 218 189 226 239 300 268 287 332 315 313 305 323 348 333 335 312 287 272 262 242 255 260
179 186 175 177 184 194 194 165 195 192 183 202 192 220 197 224 188 218 237 217 247 285 338 326 308 300 295 313 341 317 315 333 304 270 259 276 255 260
190 173 161 181 188 188 189 192 188 203 199 186 195 214 209 195 217 231 269 234 288 321 326 314 301 298 291 303 341 315 311 324 307 326 265 273 256 252
185 171 189 176 180 192 190 180 193 201 194 201 207 207 214 218 230 249 254 288 267 325 317 308 292 285 289 292 307 297 304 307 289 293 280 263 258 255
172 167 191 183 175 187 202 191 191 191 203 204 213 208 217 225 242 266 273 299 309 327 312 296 288 284 281 286 314 304 304 296 278 276 272 277 274 258
183 174 189 193 188 196 194 194 211 196 208 207 210 221 238 256 250 262 275 308 339 313 306 294 282 275 279 286 295 292 294 292 290 271 263 256 252 249
186 179 191 192 195 183 181 168 206 222 214 222 225 267 281 297 265 277 295 336 313 298 294 284 279 276 276 285 298 297 284 289 270 274 267 282 251 274
195 194 204 200 203 206 206 208 223 203 229 257 230 275 265 291 267 283 303 320 304 292 288 277 273 276 278 306 293 282 298 278 267 259 254 261 269 251
205 214 206 226 207 207 243 233 241 240 252 292 291 278 253 265 268 301 320 305 292 290 286 278 272 268 276 313 288 288 275 277 282 285 287 261 261 274
201 248 235 258 306 318 277 284 294 289 290 288 269 267 270 255 288 298 310 294 285 285 277 270 270 263 264 285 280 288 312 271 272 265 278 272 273 263
279 275 325 313 227 241 298 286 278 278 277 265 270 256 274 268 282 285 310 286 271 279 283 280 265 255 256 250 259 277 305 267 260 259 263 253 246 253
313 300 293 288 284 285 292 286 275 280 272 263 268 261 269 277 276 290 294 279 270 277 272 275 273 258 253 249 248 259 276 273 264 265 262 269 257 254
285 278 284 282 272 277 273 265 266 264 263 263 274 278 276 271 269 291 286 275 264 273 277 264 267 268 257 252 250 243 248 262 254 265 260 253 250 244
278 280 271 263 264 274 272 269 256 260 275 270 267 270 265 268 292 286 281 273 256 259 269 276 267 255 261 262 252 247 241 244 240 243 245 261 258 253
271 262 265 271 276 276 275 277 269 265 266 265 265 259 273 285 281 278 268 267 266 248 264 262 271 271 261 255 266 259 250 241 240 239 243 245 247 240